MSR14 ZGGG-HECA

Flight info

Callsign MSR14
Flight time 10h 33m
Altitude 34100
Route VIBOS2 VIBOS R473 ZUH R200 LH R339 BSE A599 GMA/K0926S1100 A599 LINSO/N0499F360 A599 CTG B465 CEA A791 BPL L639 LAXOM/N0497F380 L639 RASKI N881 KIPOL L444 TOLDA M628 TULBU G652 TOKRA/N0463F280 Y511 ITRUX/N0491F380 Y511 KITUB/N0488F400 Y511 PMA Z712 WEJ W600 DARAX L677 MENLI
Aircraft A359/H-SDE2E3GHIJ3J4J5LM1ORWXY/LB1D1

Departure

Time 2026-04-28 18:34
Airport Guangzhou Baiyun International Airport (ZGGG)

Arrival

Time 2026-04-29 05:07
Airport Cairo International Airport (HECA)
Time Latitude Longitude Altitude Speed Heading
2026-04-28 18:08 23.38771 113.30359 60 ft 0 kts 198°
2026-04-28 18:24 23.38781 113.30362 113 ft 5 kts 197°
2026-04-28 18:25 23.38813 113.30372 11 ft 5 kts 192°
2026-04-28 18:25 23.38845 113.30378 55 ft 4 kts 183°
2026-04-28 18:25 23.38875 113.30376 53 ft 3 kts 163°
2026-04-28 18:26 23.38906 113.30351 51 ft 2 kts 121°
2026-04-28 18:26 23.38912 113.30340 51 ft 2 kts 118°
2026-04-28 18:26 23.38915 113.30334 51 ft 0 kts 118°
2026-04-28 18:28 23.38906 113.30353 51 ft 7 kts 117°
2026-04-28 18:28 23.38875 113.30424 53 ft 14 kts 112°
2026-04-28 18:28 23.38847 113.30543 55 ft 15 kts 91°
2026-04-28 18:29 23.38935 113.30605 55 ft 19 kts 15°
2026-04-28 18:29 23.39072 113.30642 53 ft 12 kts 14°
2026-04-28 18:29 23.39169 113.30669 56 ft 17 kts 14°
2026-04-28 18:29 23.39299 113.30704 53 ft 22 kts 13°
2026-04-28 18:30 23.39455 113.30746 52 ft 18 kts 14°
2026-04-28 18:30 23.39518 113.30763 52 ft 14 kts 14°
2026-04-28 18:30 23.39656 113.30800 52 ft 14 kts 13°
2026-04-28 18:30 23.39761 113.30829 55 ft 17 kts 15°
2026-04-28 18:31 23.39885 113.30864 54 ft 16 kts 13°
2026-04-28 18:31 23.39992 113.30892 53 ft 17 kts 14°
2026-04-28 18:31 23.40118 113.30933 51 ft 20 kts 23°
2026-04-28 18:31 23.40155 113.31044 54 ft 15 kts 85°
2026-04-28 18:32 23.40160 113.31145 54 ft 12 kts 86°
2026-04-28 18:32 23.40153 113.31219 52 ft 8 kts 130°
2026-04-28 18:32 23.40104 113.31222 52 ft 8 kts 193°
2026-04-28 18:32 23.40044 113.31206 56 ft 0 kts 193°
2026-04-28 18:33 23.40026 113.31201 56 ft 15 kts 193°
2026-04-28 18:33 23.39729 113.31122 55 ft 73 kts 194°
2026-04-28 18:33 23.39023 113.30933 56 ft 138 kts 194°
2026-04-28 18:33 23.37891 113.30623 62 ft 196 kts 193°
2026-04-28 18:34 23.36530 113.30252 760 ft 199 kts 193°
2026-04-28 18:34 23.35199 113.29895 1657 ft 199 kts 192°
2026-04-28 18:34 23.33822 113.29548 2062 ft 209 kts 192°
2026-04-28 18:34 23.32369 113.29185 2329 ft 222 kts 192°
2026-04-28 18:35 23.30838 113.28795 2799 ft 225 kts 192°
2026-04-28 18:35 23.29301 113.28397 3281 ft 228 kts 193°
2026-04-28 18:35 23.27770 113.28000 3739 ft 231 kts 193°
2026-04-28 18:35 23.26201 113.27583 4194 ft 233 kts 195°
2026-04-28 18:36 23.24646 113.27043 4695 ft 236 kts 198°
2026-04-28 18:36 23.23092 113.26459 5184 ft 237 kts 198°
2026-04-28 18:36 23.21529 113.25882 5708 ft 238 kts 198°
2026-04-28 18:36 23.19955 113.25311 6197 ft 239 kts 198°
2026-04-28 18:37 23.18373 113.24744 6684 ft 240 kts 198°
2026-04-28 18:37 23.16774 113.24174 7154 ft 243 kts 199°
2026-04-28 18:37 23.15162 113.23601 7656 ft 245 kts 199°
2026-04-28 18:37 23.13533 113.23024 8159 ft 247 kts 199°
2026-04-28 18:38 23.11892 113.22442 8669 ft 249 kts 199°
2026-04-28 18:38 23.10235 113.21856 9177 ft 251 kts 200°
2026-04-28 18:38 23.08564 113.21265 9690 ft 253 kts 200°
2026-04-28 18:38 23.06883 113.20670 10148 ft 256 kts 200°
2026-04-28 18:39 23.05182 113.20069 10579 ft 258 kts 200°
2026-04-28 18:39 23.03459 113.19478 11034 ft 261 kts 198°
2026-04-28 18:39 23.01631 113.19280 11436 ft 271 kts 177°
2026-04-28 18:39 22.99743 113.19747 11665 ft 286 kts 166°
2026-04-28 18:40 22.97808 113.20434 11879 ft 299 kts 165°
2026-04-28 18:40 22.95789 113.21165 12082 ft 312 kts 165°
2026-04-28 18:40 22.93688 113.21914 12298 ft 324 kts 165°
2026-04-28 18:40 22.91509 113.22681 12512 ft 336 kts 165°
2026-04-28 18:41 22.89242 113.23474 12724 ft 347 kts 165°
2026-04-28 18:41 22.86906 113.24288 12923 ft 358 kts 165°
2026-04-28 18:41 22.84497 113.25126 13122 ft 368 kts 165°
2026-04-28 18:41 22.82060 113.25973 13307 ft 377 kts 165°
2026-04-28 18:42 22.79541 113.26848 13585 ft 383 kts 165°
2026-04-28 18:42 22.76986 113.27735 13916 ft 386 kts 165°
2026-04-28 18:42 22.74418 113.28627 14247 ft 389 kts 165°
2026-04-28 18:42 22.71829 113.29524 14587 ft 392 kts 165°
2026-04-28 18:43 22.69221 113.30428 14918 ft 394 kts 165°
2026-04-28 18:43 22.66599 113.31336 15256 ft 396 kts 165°
2026-04-28 18:43 22.63965 113.32247 15586 ft 399 kts 165°
2026-04-28 18:43 22.61309 113.33170 15911 ft 401 kts 165°
2026-04-28 18:44 22.58647 113.34099 16231 ft 404 kts 165°
2026-04-28 18:44 22.53250 113.35960 16875 ft 408 kts 165°
2026-04-28 18:44 22.50534 113.36894 17196 ft 411 kts 165°
2026-04-28 18:45 22.47789 113.37838 17499 ft 414 kts 165°
2026-04-28 18:45 22.45075 113.38772 17800 ft 416 kts 165°
2026-04-28 18:45 22.42307 113.39725 18110 ft 418 kts 165°
2026-04-28 18:45 22.39523 113.40686 18391 ft 421 kts 165°
2026-04-28 18:46 22.36721 113.41652 18665 ft 423 kts 165°
2026-04-28 18:46 22.33916 113.42618 18924 ft 425 kts 165°
2026-04-28 18:46 22.31079 113.43553 19198 ft 425 kts 169°
2026-04-28 18:46 22.28165 113.44042 19459 ft 423 kts 180°
2026-04-28 18:47 22.25249 113.43822 19707 ft 419 kts 194°
2026-04-28 18:47 22.22505 113.42815 19963 ft 415 kts 210°
2026-04-28 18:47 22.20137 113.41070 20218 ft 412 kts 225°
2026-04-28 18:47 22.18317 113.38746 20476 ft 410 kts 239°
2026-04-28 18:48 22.17118 113.35973 20727 ft 409 kts 254°
2026-04-28 18:48 22.16474 113.32979 20976 ft 411 kts 257°
2026-04-28 18:48 22.15664 113.30013 21240 ft 413 kts 253°
2026-04-28 18:48 22.14751 113.27062 21518 ft 415 kts 252°
2026-04-28 18:49 22.13775 113.24127 21773 ft 416 kts 251°
2026-04-28 18:49 22.13430 113.23136 21864 ft 417 kts 250°
2026-04-28 18:49 22.11548 113.18317 22303 ft 420 kts 247°
2026-04-28 18:49 22.10328 113.15448 22550 ft 422 kts 246°
2026-04-28 18:50 22.09087 113.12571 22804 ft 424 kts 246°
2026-04-28 18:50 22.07845 113.09677 23059 ft 426 kts 246°
2026-04-28 18:50 22.06612 113.06777 23305 ft 428 kts 247°
2026-04-28 18:50 22.05380 113.03852 23524 ft 429 kts 247°
2026-04-28 18:51 22.04148 113.00908 23723 ft 430 kts 247°
2026-04-28 18:51 22.02938 112.97995 23940 ft 432 kts 248°
2026-04-28 18:51 22.01756 112.95018 24141 ft 433 kts 249°
2026-04-28 18:51 22.00598 112.92013 24371 ft 434 kts 249°
2026-04-28 18:52 21.99447 112.89002 24603 ft 436 kts 249°
2026-04-28 18:52 21.98289 112.85979 24850 ft 437 kts 249°
2026-04-28 18:52 21.97126 112.82961 25082 ft 438 kts 249°
2026-04-28 18:52 21.95938 112.79915 25328 ft 440 kts 248°
2026-04-28 18:53 21.94729 112.76885 25582 ft 442 kts 248°
2026-04-28 18:53 21.93500 112.73847 25841 ft 443 kts 248°
2026-04-28 18:53 21.92263 112.70800 26101 ft 445 kts 248°
2026-04-28 18:53 21.91018 112.67735 26343 ft 447 kts 248°
2026-04-28 18:54 21.89775 112.64669 26642 ft 448 kts 248°
2026-04-28 18:54 21.88527 112.61590 26916 ft 450 kts 248°
2026-04-28 18:54 21.87273 112.58493 27192 ft 452 kts 248°
2026-04-28 18:54 21.86017 112.55391 27469 ft 453 kts 248°
2026-04-28 18:55 21.84755 112.52271 27746 ft 455 kts 248°
2026-04-28 18:55 21.83928 112.50204 27924 ft 456 kts 248°
2026-04-28 18:55 21.82256 112.45977 28283 ft 458 kts 249°
2026-04-28 18:55 21.81009 112.42812 28551 ft 460 kts 249°
2026-04-28 18:56 21.79758 112.39640 28804 ft 462 kts 248°
2026-04-28 18:56 21.78496 112.36451 29055 ft 464 kts 248°
2026-04-28 18:56 21.77232 112.33264 29304 ft 465 kts 248°
2026-04-28 18:56 21.75969 112.30090 29546 ft 467 kts 248°
2026-04-28 18:57 21.74685 112.26866 29774 ft 469 kts 248°
2026-04-28 18:57 21.73403 112.23649 30000 ft 470 kts 248°
2026-04-28 18:57 21.72108 112.20402 30181 ft 472 kts 248°
2026-04-28 18:57 21.70814 112.17161 30386 ft 473 kts 248°
2026-04-28 18:58 21.69514 112.13906 30589 ft 473 kts 248°
2026-04-28 18:58 21.68216 112.10656 30768 ft 474 kts 248°
2026-04-28 18:58 21.66911 112.07392 30966 ft 475 kts 248°
2026-04-28 18:58 21.65601 112.04119 31144 ft 476 kts 248°
2026-04-28 18:59 21.64294 112.00853 31330 ft 477 kts 248°
2026-04-28 18:59 21.63423 111.98679 31490 ft 476 kts 248°
2026-04-28 18:59 21.62115 111.95417 31792 ft 475 kts 248°
2026-04-28 18:59 21.60812 111.92168 32065 ft 473 kts 248°
2026-04-28 19:00 21.59506 111.88913 32321 ft 472 kts 248°
2026-04-28 19:00 21.58205 111.85675 32559 ft 471 kts 248°
2026-04-28 19:00 21.56998 111.82412 32786 ft 469 kts 252°
2026-04-28 19:00 21.55972 111.79078 33045 ft 468 kts 253°
2026-04-28 19:01 21.54995 111.75759 33268 ft 467 kts 253°
2026-04-28 19:01 21.54032 111.72413 33489 ft 467 kts 253°
2026-04-28 19:01 21.53097 111.69130 33726 ft 466 kts 253°
2026-04-28 19:01 21.52154 111.65816 33914 ft 465 kts 253°
2026-04-28 19:02 21.50247 111.59137 33967 ft 468 kts 253°
2026-04-28 19:02 21.48325 111.52451 33967 ft 468 kts 253°
2026-04-28 19:03 21.46398 111.45769 33967 ft 468 kts 253°
2026-04-28 19:03 21.44468 111.39091 33963 ft 468 kts 253°
2026-04-28 19:04 21.42537 111.32417 33960 ft 468 kts 253°
2026-04-28 19:04 21.40605 111.25751 33959 ft 468 kts 253°
2026-04-28 19:05 21.38671 111.19087 33958 ft 466 kts 253°
2026-04-28 19:05 21.36753 111.12491 33954 ft 466 kts 253°
2026-04-28 19:06 21.34818 111.05851 33948 ft 466 kts 253°
2026-04-28 19:06 21.32885 110.99221 33948 ft 466 kts 253°
2026-04-28 19:07 21.30945 110.92583 33948 ft 466 kts 253°
2026-04-28 19:07 21.29004 110.85950 33946 ft 466 kts 253°
2026-04-28 19:08 21.27059 110.79314 33948 ft 466 kts 253°
2026-04-28 19:08 21.25115 110.72690 33946 ft 466 kts 253°
2026-04-28 19:09 21.23167 110.66065 33941 ft 466 kts 253°
2026-04-28 19:09 21.21221 110.59460 33943 ft 466 kts 253°
2026-04-28 19:10 21.19266 110.52832 33944 ft 466 kts 253°
2026-04-28 19:10 21.17307 110.46199 33945 ft 466 kts 253°
2026-04-28 19:11 21.15569 110.39519 33941 ft 466 kts 260°
2026-04-28 19:11 21.15392 110.32596 33943 ft 467 kts 277°
2026-04-28 19:12 21.17242 110.25926 33943 ft 471 kts 294°
2026-04-28 19:12 21.20270 110.19673 33946 ft 473 kts 296°
2026-04-28 19:13 21.23453 110.13491 33945 ft 474 kts 296°
2026-04-28 19:13 21.26619 110.07298 33946 ft 474 kts 296°
2026-04-28 19:14 21.29737 110.01119 33951 ft 474 kts 296°
2026-04-28 19:14 21.32870 109.94872 33947 ft 474 kts 296°
2026-04-28 19:15 21.35994 109.88640 33942 ft 473 kts 295°
2026-04-28 19:15 21.38576 109.83483 33943 ft 472 kts 295°
2026-04-28 19:16 21.42182 109.76268 33942 ft 472 kts 295°
2026-04-28 19:16 21.45286 109.70054 33946 ft 472 kts 295°
2026-04-28 19:17 21.48371 109.63869 33947 ft 472 kts 295°
2026-04-28 19:17 21.51472 109.57647 33945 ft 471 kts 295°
2026-04-28 19:18 21.54576 109.51412 33948 ft 471 kts 295°
2026-04-28 19:18 21.57682 109.45210 33946 ft 472 kts 297°
2026-04-28 19:19 21.61557 109.39471 33952 ft 476 kts 305°
2026-04-28 19:19 21.65798 109.33981 33951 ft 477 kts 307°
2026-04-28 19:20 21.70065 109.28565 33951 ft 478 kts 307°
2026-04-28 19:20 21.74356 109.23100 33946 ft 478 kts 306°
2026-04-28 19:21 21.78624 109.17633 33948 ft 478 kts 306°
2026-04-28 19:21 21.82905 109.12136 33955 ft 478 kts 306°
2026-04-28 19:22 21.86465 109.07567 33952 ft 479 kts 307°
2026-04-28 19:22 21.91486 109.01155 33956 ft 479 kts 307°
2026-04-28 19:23 21.95761 108.95691 33955 ft 480 kts 307°
2026-04-28 19:23 22.00067 108.90181 33955 ft 481 kts 307°
2026-04-28 19:24 22.04380 108.84655 33957 ft 482 kts 307°
2026-04-28 19:24 22.08692 108.79125 33958 ft 482 kts 307°
2026-04-28 19:25 22.13015 108.73580 33957 ft 483 kts 307°
2026-04-28 19:25 22.17351 108.68038 33960 ft 483 kts 307°
2026-04-28 19:26 22.21688 108.62488 33963 ft 484 kts 307°
2026-04-28 19:26 22.26002 108.56962 33964 ft 484 kts 307°
2026-04-28 19:27 22.30340 108.51399 33972 ft 484 kts 308°
2026-04-28 19:27 22.34689 108.45817 33974 ft 485 kts 308°
2026-04-28 19:28 22.39039 108.40230 33974 ft 488 kts 307°
2026-04-28 19:28 22.43421 108.34593 33980 ft 491 kts 307°
2026-04-28 19:29 22.47072 108.29891 33980 ft 491 kts 307°
2026-04-28 19:29 22.52211 108.23267 33987 ft 492 kts 307°
2026-04-28 19:30 22.56580 108.17630 33983 ft 492 kts 307°
2026-04-28 19:30 22.61036 108.11989 33987 ft 494 kts 309°
2026-04-28 19:31 22.65800 108.06591 33985 ft 496 kts 311°
2026-04-28 19:31 22.70609 108.01242 33984 ft 496 kts 310°
2026-04-28 19:32 22.75395 107.95828 33983 ft 496 kts 310°
2026-04-28 19:32 22.80148 107.90388 33993 ft 497 kts 310°
2026-04-28 19:33 22.84899 107.84933 33992 ft 497 kts 310°
2026-04-28 19:33 22.89620 107.79508 33998 ft 498 kts 310°
2026-04-28 19:34 22.94376 107.74041 34006 ft 498 kts 310°
2026-04-28 19:34 22.99135 107.68562 34009 ft 498 kts 310°
2026-04-28 19:35 23.03902 107.63075 34021 ft 499 kts 310°
2026-04-28 19:35 23.08633 107.57629 34021 ft 499 kts 309°
2026-04-28 19:36 23.13386 107.52145 34028 ft 498 kts 309°
2026-04-28 19:36 23.18138 107.46656 34046 ft 497 kts 309°
2026-04-28 19:37 23.22075 107.42106 34033 ft 497 kts 309°
2026-04-28 19:37 23.27611 107.35698 34045 ft 496 kts 309°
2026-04-28 19:38 23.32340 107.30219 34052 ft 496 kts 309°
2026-04-28 19:38 23.37031 107.24780 34054 ft 495 kts 309°
2026-04-28 19:39 23.41747 107.19304 34063 ft 495 kts 309°
2026-04-28 19:39 23.46458 107.13828 34066 ft 495 kts 309°
2026-04-28 19:40 23.51163 107.08352 34068 ft 494 kts 309°
2026-04-28 19:40 23.55849 107.02894 34071 ft 494 kts 309°
2026-04-28 19:41 23.60549 106.97411 34084 ft 494 kts 309°
2026-04-28 19:41 23.65215 106.91964 34080 ft 494 kts 309°
2026-04-28 19:42 23.69908 106.86479 34083 ft 493 kts 309°
2026-04-28 19:42 23.73795 106.81931 34083 ft 493 kts 309°
2026-04-28 19:43 23.79271 106.75517 34090 ft 494 kts 309°
2026-04-28 19:43 23.83953 106.70025 34093 ft 494 kts 309°
2026-04-28 19:44 23.88616 106.64516 34095 ft 493 kts 306°
2026-04-28 19:44 23.92275 106.58309 34103 ft 482 kts 289°
2026-04-28 19:45 23.94210 106.51356 34104 ft 476 kts 279°
2026-04-28 19:45 23.95633 106.44358 34109 ft 476 kts 278°
2026-04-28 19:46 23.97011 106.37266 34112 ft 476 kts 278°
2026-04-28 19:46 23.98184 106.31336 34117 ft 476 kts 279°
2026-04-28 19:47 23.99602 106.24268 34120 ft 475 kts 279°
2026-04-28 19:47 24.01022 106.17209 34118 ft 475 kts 279°
2026-04-28 19:48 24.02423 106.10218 34130 ft 475 kts 279°
2026-04-28 19:48 24.03840 106.03141 34130 ft 474 kts 279°
2026-04-28 19:49 24.05247 105.96082 34136 ft 474 kts 279°
2026-04-28 19:49 24.06646 105.89042 34140 ft 474 kts 279°
2026-04-28 19:50 24.08747 105.78451 34149 ft 473 kts 279°
2026-04-28 19:51 24.10142 105.71400 34152 ft 473 kts 279°
2026-04-28 19:51 24.11665 105.64383 34155 ft 474 kts 282°
2026-04-28 19:52 24.13411 105.57473 34155 ft 475 kts 282°
2026-04-28 19:52 24.15169 105.50506 34160 ft 474 kts 282°
2026-04-28 19:53 24.16884 105.43540 34162 ft 473 kts 282°
2026-04-28 19:53 24.18516 105.36816 34162 ft 473 kts 281°
2026-04-28 19:54 24.20199 105.29853 34164 ft 472 kts 281°
2026-04-28 19:54 24.21881 105.22884 34170 ft 472 kts 281°
2026-04-28 19:55 24.23508 105.15930 34170 ft 471 kts 280°
2026-04-28 19:55 24.25034 105.08933 34178 ft 471 kts 280°
2026-04-28 19:56 24.26557 105.01944 34179 ft 470 kts 280°
2026-04-28 19:56 24.28078 104.95025 34183 ft 470 kts 280°
2026-04-28 19:57 24.29610 104.88065 34191 ft 469 kts 280°
2026-04-28 19:57 24.31139 104.81113 34200 ft 469 kts 280°
2026-04-28 19:58 24.32667 104.74152 34203 ft 469 kts 280°
2026-04-28 19:58 24.34188 104.67205 34203 ft 468 kts 280°
2026-04-28 19:59 24.35701 104.60270 34218 ft 468 kts 280°
2026-04-28 19:59 24.37214 104.53328 34219 ft 467 kts 280°
2026-04-28 20:00 24.38720 104.46398 34220 ft 467 kts 280°
2026-04-28 20:00 24.40224 104.39462 34228 ft 466 kts 280°
2026-04-28 20:01 24.41723 104.32541 34238 ft 466 kts 280°
2026-04-28 20:01 24.43204 104.25679 34247 ft 464 kts 280°
2026-04-28 20:02 24.44698 104.18740 34246 ft 464 kts 280°
2026-04-28 20:02 24.46178 104.11845 34256 ft 464 kts 279°
2026-04-28 20:03 24.47654 104.04959 34263 ft 463 kts 279°
2026-04-28 20:03 24.49118 103.98111 34261 ft 463 kts 279°
2026-04-28 20:04 24.50590 103.91208 34274 ft 464 kts 279°
2026-04-28 20:04 24.52056 103.84319 34275 ft 464 kts 279°
2026-04-28 20:05 24.53527 103.77417 34283 ft 464 kts 280°
2026-04-28 20:05 24.55781 103.70742 34287 ft 470 kts 290°
2026-04-28 20:06 24.58603 103.64239 34296 ft 471 kts 291°
2026-04-28 20:06 24.61497 103.57785 34304 ft 471 kts 292°
2026-04-28 20:07 24.64369 103.51358 34313 ft 471 kts 292°
2026-04-28 20:07 24.67241 103.44881 34320 ft 470 kts 291°
2026-04-28 20:08 24.70101 103.38406 34326 ft 470 kts 291°
2026-04-28 20:08 24.72957 103.31930 34334 ft 470 kts 291°
2026-04-28 20:09 24.75804 103.25465 34326 ft 469 kts 292°
2026-04-28 20:09 24.78646 103.19006 34333 ft 468 kts 292°
2026-04-28 20:10 24.81457 103.12604 34337 ft 467 kts 292°
2026-04-28 20:10 24.84285 103.06158 34341 ft 467 kts 292°
2026-04-28 20:11 24.87102 102.99728 34339 ft 466 kts 292°
2026-04-28 20:11 24.89910 102.93307 34340 ft 465 kts 292°
2026-04-28 20:12 24.92713 102.86888 34342 ft 465 kts 292°
2026-04-28 20:12 24.95545 102.80492 34341 ft 464 kts 292°
2026-04-28 20:13 24.98388 102.74107 34337 ft 464 kts 292°
2026-04-28 20:13 25.01226 102.67717 34338 ft 464 kts 292°
2026-04-28 20:14 25.03996 102.61304 34333 ft 462 kts 288°
2026-04-28 20:14 25.05574 102.54507 34323 ft 455 kts 274°
2026-04-28 20:15 25.05265 102.47646 34315 ft 452 kts 257°
2026-04-28 20:15 25.03092 102.41159 34313 ft 453 kts 244°
2026-04-28 20:16 25.00183 102.34993 34301 ft 454 kts 243°
2026-04-28 20:16 24.97193 102.28860 34294 ft 454 kts 243°
2026-04-28 20:17 24.94221 102.22707 34281 ft 454 kts 243°
2026-04-28 20:17 24.91273 102.16550 34277 ft 454 kts 244°
2026-04-28 20:18 24.88326 102.10388 34266 ft 455 kts 244°
2026-04-28 20:18 24.85377 102.04229 34259 ft 455 kts 244°
2026-04-28 20:19 24.82422 101.98070 34251 ft 455 kts 244°
2026-04-28 20:19 24.79461 101.91913 34244 ft 455 kts 244°
2026-04-28 20:20 24.76498 101.85754 34236 ft 455 kts 244°
2026-04-28 20:20 24.73533 101.79596 34227 ft 455 kts 244°
2026-04-28 20:21 24.70583 101.73479 34212 ft 455 kts 244°
2026-04-28 20:21 24.67607 101.67319 34204 ft 456 kts 244°
2026-04-28 20:22 24.64631 101.61166 34193 ft 456 kts 244°
2026-04-28 20:22 24.61653 101.55019 34183 ft 456 kts 244°
2026-04-28 20:23 24.58634 101.48875 34173 ft 457 kts 244°
2026-04-28 20:23 24.55600 101.42741 34165 ft 457 kts 244°
2026-04-28 20:24 24.52564 101.36604 34159 ft 457 kts 244°
2026-04-28 20:24 24.49555 101.30517 34148 ft 457 kts 244°
2026-04-28 20:25 24.46521 101.24388 34139 ft 456 kts 244°
2026-04-28 20:25 24.43490 101.18275 34132 ft 456 kts 244°
2026-04-28 20:26 24.40454 101.12157 34121 ft 457 kts 244°
2026-04-28 20:26 24.37409 101.06029 34114 ft 457 kts 244°
2026-04-28 20:27 24.34360 100.99905 34123 ft 457 kts 244°
2026-04-28 20:27 24.31314 100.93791 34096 ft 456 kts 244°
2026-04-28 20:28 24.28268 100.87682 34097 ft 457 kts 244°
2026-04-28 20:28 24.25222 100.81583 34102 ft 457 kts 244°
2026-04-28 20:29 24.22162 100.75463 34081 ft 457 kts 244°
2026-04-28 20:29 24.19099 100.69344 34073 ft 457 kts 244°
2026-04-28 20:30 24.16055 100.63277 34087 ft 458 kts 244°
2026-04-28 20:30 24.12984 100.57161 34082 ft 458 kts 244°
2026-04-28 20:31 24.09902 100.51055 34076 ft 459 kts 243°
2026-04-28 20:31 24.07281 100.45949 34079 ft 459 kts 243°
2026-04-28 20:32 24.04154 100.39878 34077 ft 459 kts 243°
2026-04-28 20:32 24.01049 100.33834 34070 ft 459 kts 243°
2026-04-28 20:33 23.97921 100.27749 34065 ft 458 kts 243°
2026-04-28 20:33 23.94796 100.21671 34062 ft 458 kts 243°
2026-04-28 20:34 23.91670 100.15607 34065 ft 457 kts 243°
2026-04-28 20:34 23.88546 100.09552 34061 ft 457 kts 243°
2026-04-28 20:35 23.85421 100.03499 34058 ft 457 kts 243°
2026-04-28 20:35 23.82295 99.97453 34058 ft 456 kts 243°
2026-04-28 20:36 23.79168 99.91412 34064 ft 457 kts 243°
2026-04-28 20:36 23.76046 99.85385 34059 ft 456 kts 243°
2026-04-28 20:37 23.72938 99.79397 34063 ft 457 kts 243°
2026-04-28 20:37 23.69800 99.73362 34051 ft 456 kts 243°
2026-04-28 20:38 23.66668 99.67344 34052 ft 456 kts 243°
2026-04-28 20:38 23.63534 99.61327 34048 ft 456 kts 243°
2026-04-28 20:39 23.60397 99.55314 34042 ft 456 kts 243°
2026-04-28 20:39 23.57258 99.49301 34045 ft 456 kts 243°
2026-04-28 20:40 23.54123 99.43294 34063 ft 456 kts 244°
2026-04-28 20:40 23.52766 99.40225 34210 ft 454 kts 250°
2026-04-28 20:40 23.51658 99.37018 34441 ft 452 kts 252°
2026-04-28 20:40 23.50599 99.33750 34653 ft 451 kts 253°
2026-04-28 20:41 23.49601 99.30560 34795 ft 452 kts 253°
2026-04-28 20:41 23.48599 99.27307 34992 ft 451 kts 253°
2026-04-28 20:41 23.47606 99.24078 35270 ft 448 kts 253°
2026-04-28 20:41 23.46616 99.20867 35502 ft 447 kts 253°
2026-04-28 20:42 23.45622 99.17654 35680 ft 447 kts 253°
2026-04-28 20:42 23.44637 99.14485 35855 ft 446 kts 253°
2026-04-28 20:42 23.43626 99.11238 35923 ft 449 kts 253°
2026-04-28 20:43 23.41617 99.04801 35932 ft 453 kts 253°
2026-04-28 20:43 23.39585 98.98316 35923 ft 452 kts 253°
2026-04-28 20:44 23.37552 98.91836 35917 ft 453 kts 253°
2026-04-28 20:44 23.35447 98.85357 35920 ft 454 kts 252°
2026-04-28 20:45 23.33257 98.78914 35917 ft 454 kts 252°
2026-04-28 20:45 23.31069 98.72462 35916 ft 454 kts 252°
2026-04-28 20:46 23.28895 98.66017 35914 ft 454 kts 252°
2026-04-28 20:46 23.26721 98.59555 35915 ft 455 kts 252°
2026-04-28 20:47 23.24542 98.53095 35909 ft 454 kts 252°
2026-04-28 20:47 23.22363 98.46637 35913 ft 455 kts 252°
2026-04-28 20:48 23.20177 98.40171 35909 ft 455 kts 252°
2026-04-28 20:48 23.17985 98.33699 35911 ft 456 kts 252°
2026-04-28 20:49 23.15788 98.27221 35910 ft 456 kts 252°
2026-04-28 20:49 23.13605 98.20798 35911 ft 457 kts 252°
2026-04-28 20:50 23.11397 98.14311 35905 ft 458 kts 252°
2026-04-28 20:50 23.09185 98.07818 35904 ft 458 kts 252°
2026-04-28 20:51 23.06971 98.01329 35900 ft 459 kts 252°
2026-04-28 20:51 23.04750 97.94833 35898 ft 459 kts 252°
2026-04-28 20:52 23.02524 97.88329 35891 ft 459 kts 252°
2026-04-28 20:52 23.00295 97.81825 35887 ft 460 kts 252°
2026-04-28 20:53 22.97751 97.71841 35880 ft 457 kts 263°
2026-04-28 20:53 22.96963 97.64996 35880 ft 458 kts 264°
2026-04-28 20:54 22.96279 97.58166 35881 ft 458 kts 265°
2026-04-28 20:54 22.95583 97.51277 35899 ft 458 kts 264°
2026-04-28 20:55 22.94868 97.44386 35888 ft 459 kts 264°
2026-04-28 20:55 22.94142 97.37500 35905 ft 459 kts 264°
2026-04-28 20:56 22.93412 97.30615 35892 ft 460 kts 264°
2026-04-28 20:56 22.92683 97.23759 35895 ft 461 kts 264°
2026-04-28 20:57 22.91947 97.16859 35895 ft 461 kts 264°
2026-04-28 20:57 22.91206 97.09946 35893 ft 461 kts 264°
2026-04-28 20:58 22.90461 97.03024 35895 ft 462 kts 264°
2026-04-28 20:58 22.89712 96.96090 35894 ft 462 kts 264°
2026-04-28 20:59 22.88961 96.89172 35905 ft 462 kts 264°
2026-04-28 20:59 22.88205 96.82232 35883 ft 463 kts 264°
2026-04-28 21:00 22.87447 96.75296 35882 ft 463 kts 264°
2026-04-28 21:00 22.86683 96.68341 35883 ft 464 kts 264°
2026-04-28 21:01 22.85922 96.61437 35883 ft 465 kts 264°
2026-04-28 21:01 22.85150 96.54469 35880 ft 466 kts 264°
2026-04-28 21:02 22.84375 96.47492 35867 ft 466 kts 264°
2026-04-28 21:02 22.83596 96.40513 35863 ft 467 kts 264°
2026-04-28 21:03 22.82811 96.33504 35861 ft 468 kts 264°
2026-04-28 21:03 22.82022 96.26491 35860 ft 468 kts 264°
2026-04-28 21:04 22.81229 96.19476 35848 ft 469 kts 264°
2026-04-28 21:04 22.80440 96.12518 35840 ft 468 kts 264°
2026-04-28 21:05 22.79641 96.05507 35832 ft 468 kts 264°
2026-04-28 21:05 22.78840 95.98506 35825 ft 468 kts 264°
2026-04-28 21:06 22.78039 95.91518 35816 ft 467 kts 265°
2026-04-28 21:06 22.77233 95.84523 35810 ft 467 kts 264°
2026-04-28 21:07 22.76426 95.77546 35812 ft 467 kts 264°
2026-04-28 21:07 22.75617 95.70570 35816 ft 466 kts 264°
2026-04-28 21:08 22.74805 95.63607 35808 ft 466 kts 264°
2026-04-28 21:08 22.73995 95.56680 35805 ft 465 kts 264°
2026-04-28 21:09 22.73179 95.49734 35804 ft 465 kts 264°
2026-04-28 21:09 22.72359 95.42782 35807 ft 464 kts 264°
2026-04-28 21:10 22.71538 95.35837 35807 ft 464 kts 264°
2026-04-28 21:10 22.70714 95.28897 35802 ft 464 kts 264°
2026-04-28 21:11 22.69891 95.22001 35803 ft 464 kts 264°
2026-04-28 21:11 22.69064 95.15082 35808 ft 464 kts 264°
2026-04-28 21:12 22.68230 95.08141 35809 ft 463 kts 264°
2026-04-28 21:12 22.67395 95.01214 35802 ft 463 kts 264°
2026-04-28 21:13 22.66563 94.94341 35800 ft 463 kts 264°
2026-04-28 21:13 22.65724 94.87432 35804 ft 463 kts 264°
2026-04-28 21:14 22.64883 94.80525 35806 ft 462 kts 263°
2026-04-28 21:14 22.64038 94.73622 35810 ft 462 kts 263°
2026-04-28 21:15 22.63192 94.66733 35813 ft 462 kts 263°
2026-04-28 21:15 22.62486 94.61001 35807 ft 462 kts 263°
2026-04-28 21:16 22.61634 94.54107 35819 ft 461 kts 263°
2026-04-28 21:16 22.60781 94.47226 35816 ft 461 kts 263°
2026-04-28 21:17 22.59925 94.40349 35822 ft 461 kts 263°
2026-04-28 21:17 22.59068 94.33483 35818 ft 461 kts 263°
2026-04-28 21:18 22.58210 94.26649 35821 ft 460 kts 263°
2026-04-28 21:18 22.57341 94.19733 35824 ft 461 kts 263°
2026-04-28 21:19 22.56475 94.12874 35828 ft 461 kts 263°
2026-04-28 21:19 22.55603 94.05993 35837 ft 461 kts 263°
2026-04-28 21:20 22.54736 93.99171 35840 ft 461 kts 262°
2026-04-28 21:20 22.53857 93.92275 35852 ft 462 kts 263°
2026-04-28 21:21 22.52976 93.85399 35868 ft 463 kts 262°
2026-04-28 21:21 22.52091 93.78500 35871 ft 463 kts 262°
2026-04-28 21:22 22.51201 93.71592 35885 ft 463 kts 262°
2026-04-28 21:22 22.50307 93.64687 35906 ft 464 kts 262°
2026-04-28 21:23 22.49409 93.57779 35913 ft 464 kts 262°
2026-04-28 21:23 22.48509 93.50869 35916 ft 464 kts 262°
2026-04-28 21:24 22.47612 93.43998 35920 ft 465 kts 262°
2026-04-28 21:24 22.46706 93.37083 35924 ft 465 kts 262°
2026-04-28 21:25 22.45795 93.30150 35920 ft 465 kts 262°
2026-04-28 21:25 22.44879 93.23213 35907 ft 466 kts 262°
2026-04-28 21:26 22.43966 93.16316 35905 ft 466 kts 262°
2026-04-28 21:26 22.43045 93.09373 35899 ft 467 kts 262°
2026-04-28 21:27 22.42118 93.02424 35881 ft 467 kts 262°
2026-04-28 21:27 22.41189 92.95480 35876 ft 468 kts 262°
2026-04-28 21:28 22.40250 92.88501 35867 ft 469 kts 262°
2026-04-28 21:28 22.39311 92.81525 35855 ft 469 kts 262°
2026-04-28 21:29 22.38369 92.74543 35853 ft 470 kts 262°
2026-04-28 21:29 22.37426 92.67545 35842 ft 471 kts 262°
2026-04-28 21:30 22.36489 92.60589 35838 ft 471 kts 262°
2026-04-28 21:30 22.35542 92.53582 35827 ft 472 kts 262°
2026-04-28 21:31 22.34589 92.46563 35823 ft 472 kts 262°
2026-04-28 21:31 22.33631 92.39543 35818 ft 473 kts 262°
2026-04-28 21:32 22.32669 92.32504 35812 ft 474 kts 262°
2026-04-28 21:32 22.31703 92.25453 35809 ft 474 kts 262°
2026-04-28 21:33 22.30736 92.18403 35805 ft 475 kts 262°
2026-04-28 21:33 22.29764 92.11386 35805 ft 475 kts 262°
2026-04-28 21:34 22.28785 92.04327 35800 ft 476 kts 262°
2026-04-28 21:34 22.27795 91.97212 35800 ft 476 kts 261°
2026-04-28 21:35 22.26815 91.90182 35796 ft 477 kts 261°
2026-04-28 21:35 22.26043 91.83029 35796 ft 477 kts 269°
2026-04-28 21:36 22.26529 91.75934 35791 ft 478 kts 276°
2026-04-28 21:36 22.27350 91.68753 35788 ft 479 kts 276°
2026-04-28 21:37 22.28207 91.61616 35785 ft 480 kts 276°
2026-04-28 21:37 22.29041 91.54515 35779 ft 480 kts 276°
2026-04-28 21:38 22.29863 91.47356 35776 ft 480 kts 276°
2026-04-28 21:38 22.30680 91.40180 35774 ft 480 kts 276°
2026-04-28 21:39 22.31516 91.33012 35771 ft 481 kts 276°
2026-04-28 21:39 22.32415 91.25849 35769 ft 481 kts 277°
2026-04-28 21:40 22.33310 91.18731 35764 ft 481 kts 277°
2026-04-28 21:40 22.34198 91.11569 35758 ft 481 kts 277°
2026-04-28 21:41 22.35076 91.04407 35757 ft 480 kts 277°
2026-04-28 21:41 22.35948 90.97262 35752 ft 480 kts 277°
2026-04-28 21:42 22.36819 90.90109 35751 ft 480 kts 277°
2026-04-28 21:42 22.37685 90.82968 35749 ft 479 kts 277°
2026-04-28 21:43 22.38549 90.75813 35753 ft 479 kts 277°
2026-04-28 21:43 22.39403 90.68724 35746 ft 478 kts 277°
2026-04-28 21:44 22.40257 90.61602 35746 ft 478 kts 277°
2026-04-28 21:44 22.41108 90.54474 35745 ft 477 kts 277°
2026-04-28 21:45 22.41954 90.47365 35741 ft 477 kts 277°
2026-04-28 21:45 22.42797 90.40256 35742 ft 476 kts 277°
2026-04-28 21:46 22.43637 90.33148 35738 ft 476 kts 277°
2026-04-28 21:46 22.44473 90.26042 35738 ft 476 kts 277°
2026-04-28 21:47 22.45305 90.18946 35734 ft 476 kts 277°
2026-04-28 21:47 22.46134 90.11843 35732 ft 476 kts 277°
2026-04-28 21:48 22.46960 90.04743 35733 ft 476 kts 277°
2026-04-28 21:48 22.47782 89.97649 35730 ft 475 kts 277°
2026-04-28 21:49 22.48596 89.90595 35728 ft 476 kts 277°
2026-04-28 21:49 22.49413 89.83495 35726 ft 476 kts 277°
2026-04-28 21:50 22.50226 89.76396 35725 ft 475 kts 277°
2026-04-28 21:50 22.51035 89.69301 35725 ft 475 kts 277°
2026-04-28 21:51 22.51842 89.62201 35726 ft 475 kts 277°
2026-04-28 21:51 22.52646 89.55096 35728 ft 475 kts 277°
2026-04-28 21:52 22.53446 89.47998 35725 ft 475 kts 277°
2026-04-28 21:52 22.54238 89.40943 35720 ft 476 kts 277°
2026-04-28 21:53 22.55033 89.33831 35719 ft 476 kts 277°
2026-04-28 21:53 22.55825 89.26721 35720 ft 476 kts 277°
2026-04-28 21:54 22.56614 89.19599 35719 ft 477 kts 277°
2026-04-28 21:54 22.57400 89.12480 35712 ft 477 kts 277°
2026-04-28 21:55 22.58185 89.05345 35714 ft 478 kts 277°
2026-04-28 21:55 22.58967 88.98210 35714 ft 478 kts 277°
2026-04-28 21:56 22.59784 88.91060 35715 ft 478 kts 278°
2026-04-28 21:56 22.60964 88.83977 35716 ft 479 kts 281°
2026-04-28 21:57 22.62246 88.76878 35710 ft 480 kts 281°
2026-04-28 21:57 22.63471 88.69782 35703 ft 480 kts 280°
2026-04-28 21:58 22.64658 88.62666 35701 ft 480 kts 280°
2026-04-28 21:58 22.65823 88.55594 35694 ft 480 kts 280°
2026-04-28 21:59 22.66995 88.48468 35692 ft 480 kts 280°
2026-04-28 22:00 22.68100 88.37694 35693 ft 480 kts 274°
2026-04-28 22:00 22.68580 88.30465 35694 ft 480 kts 274°
2026-04-28 22:01 22.69042 88.23255 35702 ft 480 kts 274°
2026-04-28 22:01 22.69431 88.17263 35707 ft 480 kts 274°
2026-04-28 22:02 22.69979 88.08879 35718 ft 480 kts 274°
2026-04-28 22:02 22.70372 88.02846 35722 ft 480 kts 274°
2026-04-28 22:03 22.70836 87.95672 35728 ft 480 kts 274°
2026-04-28 22:03 22.71299 87.88465 35725 ft 479 kts 274°
2026-04-28 22:04 22.71757 87.81277 35732 ft 479 kts 274°
2026-04-28 22:04 22.72215 87.74046 35725 ft 479 kts 274°
2026-04-28 22:05 22.72667 87.66849 35724 ft 479 kts 274°
2026-04-28 22:05 22.73117 87.59637 35730 ft 479 kts 274°
2026-04-28 22:06 22.73559 87.52488 35733 ft 479 kts 274°
2026-04-28 22:06 22.74003 87.45277 35738 ft 479 kts 274°
2026-04-28 22:07 22.74443 87.38053 35729 ft 479 kts 273°
2026-04-28 22:07 22.74878 87.30886 35730 ft 479 kts 273°
2026-04-28 22:08 22.75312 87.23667 35731 ft 480 kts 273°
2026-04-28 22:08 22.75742 87.16453 35737 ft 480 kts 273°
2026-04-28 22:09 22.76170 87.09233 35735 ft 480 kts 273°
2026-04-28 22:09 22.76594 87.02014 35745 ft 480 kts 273°
2026-04-28 22:10 22.77012 86.94837 35747 ft 480 kts 273°
2026-04-28 22:10 22.77429 86.87632 35747 ft 480 kts 273°
2026-04-28 22:11 22.77845 86.80395 35750 ft 480 kts 273°
2026-04-28 22:11 22.78256 86.73174 35745 ft 480 kts 273°
2026-04-28 22:12 22.78664 86.65958 35757 ft 480 kts 272°
2026-04-28 22:12 22.79069 86.58734 35758 ft 480 kts 272°
2026-04-28 22:13 22.79470 86.51515 35755 ft 480 kts 272°
2026-04-28 22:13 22.79868 86.44292 35758 ft 479 kts 272°
2026-04-28 22:14 22.80263 86.37076 35763 ft 479 kts 272°
2026-04-28 22:14 22.80651 86.29914 35764 ft 479 kts 272°
2026-04-28 22:15 22.81039 86.22711 35767 ft 478 kts 272°
2026-04-28 22:15 22.81429 86.15516 35766 ft 478 kts 273°
2026-04-28 22:16 22.81997 86.08315 35761 ft 478 kts 275°
2026-04-28 22:16 22.82638 86.01145 35767 ft 478 kts 275°
2026-04-28 22:17 22.83250 85.94021 35774 ft 477 kts 274°
2026-04-28 22:17 22.83841 85.86848 35771 ft 477 kts 274°
2026-04-28 22:18 22.84420 85.79682 35778 ft 477 kts 274°
2026-04-28 22:18 22.84995 85.72526 35783 ft 476 kts 274°
2026-04-28 22:19 22.85568 85.65378 35788 ft 476 kts 274°
2026-04-28 22:19 22.86138 85.58228 35806 ft 476 kts 274°
2026-04-28 22:20 22.86702 85.51116 35813 ft 475 kts 274°
2026-04-28 22:20 22.87265 85.43981 35821 ft 475 kts 274°
2026-04-28 22:21 22.87824 85.36846 35809 ft 474 kts 274°
2026-04-28 22:21 22.88380 85.29714 35810 ft 474 kts 274°
2026-04-28 22:22 22.88933 85.22580 35814 ft 474 kts 274°
2026-04-28 22:22 22.89480 85.15475 35816 ft 473 kts 274°
2026-04-28 22:23 22.90030 85.08397 35819 ft 473 kts 274°
2026-04-28 22:23 22.90578 85.01301 35820 ft 473 kts 274°
2026-04-28 22:24 22.91124 84.94184 35819 ft 472 kts 274°
2026-04-28 22:24 22.91666 84.87092 35820 ft 472 kts 274°
2026-04-28 22:25 22.92205 84.79999 35828 ft 472 kts 274°
2026-04-28 22:25 22.92741 84.72900 35826 ft 472 kts 274°
2026-04-28 22:26 22.93273 84.65808 35830 ft 472 kts 274°
2026-04-28 22:26 22.93804 84.58700 35833 ft 472 kts 274°
2026-04-28 22:27 22.94329 84.51605 35832 ft 472 kts 274°
2026-04-28 22:27 22.94849 84.44557 35834 ft 472 kts 274°
2026-04-28 22:28 22.95369 84.37458 35837 ft 472 kts 274°
2026-04-28 22:28 22.95886 84.30355 35836 ft 472 kts 274°
2026-04-28 22:29 22.96400 84.23255 35837 ft 472 kts 274°
2026-04-28 22:29 22.96911 84.16148 35837 ft 472 kts 274°
2026-04-28 22:30 22.97401 84.09048 35837 ft 472 kts 273°
2026-04-28 22:30 22.97782 84.01920 35835 ft 472 kts 272°
2026-04-28 22:31 22.98140 83.94786 35835 ft 473 kts 272°
2026-04-28 22:31 22.98508 83.87705 35834 ft 473 kts 272°
2026-04-28 22:32 22.98886 83.80569 35832 ft 473 kts 272°
2026-04-28 22:32 22.99264 83.73431 35830 ft 473 kts 272°
2026-04-28 22:33 22.99638 83.66292 35824 ft 474 kts 272°
2026-04-28 22:33 23.00007 83.59158 35819 ft 474 kts 272°
2026-04-28 22:34 23.00374 83.52022 35814 ft 474 kts 272°
2026-04-28 22:34 23.00737 83.44883 35807 ft 473 kts 272°
2026-04-28 22:35 23.01096 83.37764 35796 ft 473 kts 272°
2026-04-28 22:35 23.01453 83.30632 35788 ft 473 kts 272°
2026-04-28 22:36 23.01806 83.23505 35780 ft 472 kts 272°
2026-04-28 22:36 23.02156 83.16389 35770 ft 472 kts 272°
2026-04-28 22:37 23.02501 83.09288 35765 ft 471 kts 272°
2026-04-28 22:37 23.02841 83.02242 35757 ft 469 kts 272°
2026-04-28 22:38 23.03179 82.95168 35752 ft 468 kts 272°
2026-04-28 22:38 23.03513 82.88108 35745 ft 467 kts 272°
2026-04-28 22:39 23.03844 82.81064 35741 ft 466 kts 272°
2026-04-28 22:39 23.04169 82.74050 35736 ft 465 kts 272°
2026-04-28 22:40 23.04489 82.67080 35732 ft 465 kts 272°
2026-04-28 22:40 23.04809 82.60064 35733 ft 464 kts 272°
2026-04-28 22:41 23.05125 82.53056 35730 ft 464 kts 272°
2026-04-28 22:41 23.05436 82.46110 35727 ft 464 kts 272°
2026-04-28 22:42 23.05745 82.39116 35725 ft 463 kts 272°
2026-04-28 22:42 23.06050 82.32091 35726 ft 467 kts 272°
2026-04-28 22:43 23.06357 82.25045 35730 ft 467 kts 272°
2026-04-28 22:43 23.06659 82.17999 35727 ft 467 kts 272°
2026-04-28 22:44 23.07013 82.10947 35724 ft 467 kts 274°
2026-04-28 22:44 23.07472 82.03915 35726 ft 467 kts 274°
2026-04-28 22:45 23.07931 81.96876 35721 ft 467 kts 274°
2026-04-28 22:45 23.08369 81.89838 35725 ft 467 kts 274°
2026-04-28 22:46 23.08795 81.82803 35727 ft 467 kts 274°
2026-04-28 22:46 23.09215 81.75814 35723 ft 467 kts 274°
2026-04-28 22:47 23.09634 81.68778 35722 ft 466 kts 274°
2026-04-28 22:47 23.10051 81.61743 35726 ft 466 kts 273°
2026-04-28 22:48 23.10464 81.54707 35722 ft 466 kts 273°
2026-04-28 22:48 23.10875 81.47671 35732 ft 466 kts 273°
2026-04-28 22:49 23.11280 81.40686 35731 ft 466 kts 273°
2026-04-28 22:49 23.11684 81.33656 35732 ft 467 kts 273°
2026-04-28 22:50 23.12085 81.26614 35723 ft 467 kts 273°
2026-04-28 22:50 23.12483 81.19570 35726 ft 467 kts 273°
2026-04-28 22:51 23.12878 81.12531 35734 ft 467 kts 274°
2026-04-28 22:51 23.13205 81.06672 35733 ft 467 kts 274°
2026-04-28 22:52 23.13596 80.99617 35730 ft 467 kts 274°
2026-04-28 22:52 23.13982 80.92565 35732 ft 467 kts 274°
2026-04-28 22:53 23.14363 80.85570 35733 ft 467 kts 274°
2026-04-28 22:53 23.14743 80.78517 35729 ft 467 kts 274°
2026-04-28 22:54 23.15127 80.71468 35727 ft 467 kts 274°
2026-04-28 22:54 23.15514 80.64417 35725 ft 467 kts 274°
2026-04-28 22:55 23.15896 80.57375 35726 ft 467 kts 274°
2026-04-28 22:55 23.16275 80.50337 35725 ft 466 kts 274°
2026-04-28 22:56 23.16650 80.43297 35725 ft 466 kts 274°
2026-04-28 22:56 23.17022 80.36270 35722 ft 465 kts 274°
2026-04-28 22:57 23.17389 80.29285 35719 ft 465 kts 274°
2026-04-28 22:57 23.17754 80.22270 35716 ft 465 kts 274°
2026-04-28 22:58 23.18116 80.15255 35715 ft 464 kts 275°
2026-04-28 22:58 23.18474 80.08246 35717 ft 464 kts 275°
2026-04-28 22:59 23.18819 80.01232 35718 ft 464 kts 274°
2026-04-28 22:59 23.19120 79.94226 35716 ft 464 kts 274°
2026-04-28 23:00 23.19412 79.87272 35716 ft 463 kts 274°
2026-04-28 23:00 23.19709 79.80278 35718 ft 463 kts 274°
2026-04-28 23:01 23.20007 79.73272 35716 ft 463 kts 274°
2026-04-28 23:01 23.20302 79.66275 35717 ft 463 kts 274°
2026-04-28 23:02 23.20594 79.59287 35718 ft 462 kts 274°
2026-04-28 23:02 23.20849 79.52302 35722 ft 463 kts 274°
2026-04-28 23:03 23.20959 79.45352 35723 ft 462 kts 273°
2026-04-28 23:03 23.21050 79.38347 35723 ft 462 kts 273°
2026-04-28 23:04 23.21159 79.31366 35727 ft 462 kts 273°
2026-04-28 23:04 23.21338 79.20898 35730 ft 461 kts 274°
2026-04-28 23:05 23.21454 79.13986 35730 ft 460 kts 274°
2026-04-28 23:05 23.21567 79.07039 35736 ft 459 kts 274°
2026-04-28 23:06 23.21676 79.00089 35739 ft 459 kts 274°
2026-04-28 23:06 23.21781 78.93148 35740 ft 459 kts 274°
2026-04-28 23:07 23.21884 78.86202 35738 ft 459 kts 274°
2026-04-28 23:07 23.21984 78.79269 35741 ft 459 kts 274°
2026-04-28 23:08 23.22084 78.72344 35745 ft 458 kts 274°
2026-04-28 23:08 23.22379 78.65427 35746 ft 457 kts 276°
2026-04-28 23:09 23.22772 78.58518 35743 ft 457 kts 276°
2026-04-28 23:09 23.23136 78.51657 35749 ft 457 kts 276°
2026-04-28 23:10 23.23472 78.44742 35748 ft 458 kts 276°
2026-04-28 23:10 23.23796 78.37821 35754 ft 458 kts 276°
2026-04-28 23:11 23.24116 78.30907 35750 ft 458 kts 276°
2026-04-28 23:11 23.24435 78.23998 35757 ft 458 kts 276°
2026-04-28 23:12 23.24751 78.17079 35759 ft 458 kts 276°
2026-04-28 23:12 23.25065 78.10161 35762 ft 458 kts 275°
2026-04-28 23:13 23.25376 78.03244 35763 ft 458 kts 276°
2026-04-28 23:13 23.25683 77.96339 35763 ft 458 kts 276°
2026-04-28 23:14 23.25986 77.89463 35764 ft 458 kts 275°
2026-04-28 23:14 23.26288 77.82539 35771 ft 458 kts 275°
2026-04-28 23:15 23.26586 77.75619 35769 ft 458 kts 275°
2026-04-28 23:15 23.26881 77.68701 35772 ft 458 kts 275°
2026-04-28 23:16 23.27174 77.61779 35776 ft 458 kts 275°
2026-04-28 23:16 23.27464 77.54858 35778 ft 458 kts 275°
2026-04-28 23:17 23.27750 77.47934 35776 ft 458 kts 275°
2026-04-28 23:17 23.28031 77.41063 35774 ft 458 kts 275°
2026-04-28 23:18 23.28256 77.34145 35770 ft 459 kts 272°
2026-04-28 23:18 23.27890 77.27175 35774 ft 461 kts 269°
2026-04-28 23:19 23.27403 77.20209 35774 ft 461 kts 269°
2026-04-28 23:19 23.26896 77.13272 35779 ft 462 kts 269°
2026-04-28 23:20 23.26391 77.06314 35783 ft 462 kts 269°
2026-04-28 23:20 23.25888 76.99341 35793 ft 462 kts 269°
2026-04-28 23:21 23.25385 76.92382 35802 ft 462 kts 269°
2026-04-28 23:21 23.24877 76.85408 35802 ft 462 kts 269°
2026-04-28 23:22 23.24370 76.78486 35789 ft 462 kts 269°
2026-04-28 23:22 23.23856 76.71511 35792 ft 463 kts 269°
2026-04-28 23:23 23.23339 76.64540 35801 ft 463 kts 269°
2026-04-28 23:23 23.22819 76.57566 35793 ft 463 kts 269°
2026-04-28 23:24 23.22294 76.50580 35795 ft 463 kts 269°
2026-04-28 23:24 23.21766 76.43596 35799 ft 463 kts 269°
2026-04-28 23:25 23.21235 76.36600 35796 ft 464 kts 269°
2026-04-28 23:25 23.20703 76.29639 35804 ft 464 kts 269°
2026-04-28 23:26 23.20172 76.22731 35805 ft 464 kts 269°
2026-04-28 23:26 23.19626 76.15674 35813 ft 464 kts 269°
2026-04-28 23:27 23.19082 76.08684 35813 ft 464 kts 269°
2026-04-28 23:27 23.18534 76.01677 35817 ft 464 kts 269°
2026-04-28 23:28 23.18134 75.94677 35813 ft 463 kts 272°
2026-04-28 23:28 23.18132 75.87712 35816 ft 462 kts 274°
2026-04-28 23:29 23.18145 75.80760 35817 ft 462 kts 273°
2026-04-28 23:29 23.18088 75.73767 35819 ft 463 kts 272°
2026-04-28 23:30 23.17996 75.66756 35822 ft 463 kts 272°
2026-04-28 23:30 23.17897 75.59757 35822 ft 463 kts 272°
2026-04-28 23:31 23.17797 75.52792 35827 ft 463 kts 272°
2026-04-28 23:31 23.17696 75.45788 35826 ft 463 kts 272°
2026-04-28 23:32 23.17593 75.38779 35823 ft 463 kts 272°
2026-04-28 23:32 23.17486 75.31762 35824 ft 463 kts 272°
2026-04-28 23:33 23.17377 75.24808 35822 ft 463 kts 272°
2026-04-28 23:33 23.17263 75.17804 35816 ft 463 kts 272°
2026-04-28 23:34 23.17147 75.10807 35818 ft 463 kts 272°
2026-04-28 23:34 23.17028 75.03802 35817 ft 463 kts 272°
2026-04-28 23:35 23.16905 74.96802 35814 ft 463 kts 272°
2026-04-28 23:35 23.16779 74.89791 35814 ft 463 kts 272°
2026-04-28 23:36 23.16651 74.82832 35810 ft 463 kts 272°
2026-04-28 23:36 23.16520 74.75811 35812 ft 464 kts 272°
2026-04-28 23:37 23.16385 74.68792 35805 ft 464 kts 272°
2026-04-28 23:37 23.16247 74.61773 35797 ft 464 kts 272°
2026-04-28 23:38 23.16128 74.55941 35799 ft 465 kts 272°
2026-04-28 23:38 23.15961 74.47777 35793 ft 465 kts 272°
2026-04-28 23:39 23.15839 74.41921 35790 ft 466 kts 272°
2026-04-28 23:39 23.15688 74.34875 35797 ft 466 kts 272°
2026-04-28 23:40 23.15458 74.27822 35789 ft 467 kts 271°
2026-04-28 23:40 23.15093 74.20755 35794 ft 468 kts 270°
2026-04-28 23:41 23.14727 74.13684 35787 ft 468 kts 271°
2026-04-28 23:41 23.14384 74.06671 35782 ft 468 kts 271°
2026-04-28 23:42 23.14046 73.99609 35778 ft 468 kts 271°
2026-04-28 23:42 23.13706 73.92550 35775 ft 468 kts 271°
2026-04-28 23:43 23.13361 73.85472 35775 ft 468 kts 271°
2026-04-28 23:43 23.13013 73.78408 35771 ft 468 kts 271°
2026-04-28 23:44 23.12661 73.71336 35768 ft 468 kts 271°
2026-04-28 23:44 23.12309 73.64307 35766 ft 468 kts 271°
2026-04-28 23:45 23.11951 73.57234 35761 ft 468 kts 271°
2026-04-28 23:45 23.11589 73.50158 35759 ft 468 kts 271°
2026-04-28 23:46 23.11227 73.43132 35758 ft 468 kts 271°
2026-04-28 23:46 23.10861 73.36066 35757 ft 468 kts 270°
2026-04-28 23:47 23.10490 73.28989 35754 ft 468 kts 270°
2026-04-28 23:47 23.10117 73.21925 35750 ft 468 kts 270°
2026-04-28 23:48 23.09740 73.14851 35749 ft 468 kts 270°
2026-04-28 23:48 23.09362 73.07835 35743 ft 468 kts 270°
2026-04-28 23:49 23.08979 73.00761 35742 ft 469 kts 270°
2026-04-28 23:49 23.08592 72.93687 35735 ft 469 kts 270°
2026-04-28 23:50 23.08202 72.86601 35729 ft 469 kts 270°
2026-04-28 23:50 23.07812 72.79573 35725 ft 469 kts 270°
2026-04-28 23:51 23.07416 72.72503 35721 ft 469 kts 270°
2026-04-28 23:51 23.07016 72.65415 35716 ft 469 kts 270°
2026-04-28 23:52 23.06245 72.58339 35723 ft 472 kts 266°
2026-04-28 23:52 23.05277 72.51285 35723 ft 473 kts 265°
2026-04-28 23:53 23.04279 72.44260 35720 ft 473 kts 265°
2026-04-28 23:53 23.03279 72.37202 35726 ft 473 kts 265°
2026-04-28 23:54 23.02279 72.30132 35729 ft 473 kts 265°
2026-04-28 23:54 23.01281 72.23078 35735 ft 473 kts 265°
2026-04-28 23:55 23.00279 72.16017 35734 ft 473 kts 265°
2026-04-28 23:55 22.99275 72.08967 35735 ft 473 kts 265°
2026-04-28 23:56 22.98271 72.01942 35736 ft 473 kts 265°
2026-04-28 23:56 22.97259 71.94883 35739 ft 473 kts 265°
2026-04-28 23:57 22.96246 71.87834 35741 ft 473 kts 265°
2026-04-28 23:57 22.95227 71.80777 35742 ft 473 kts 265°
2026-04-28 23:58 22.94212 71.73763 35742 ft 473 kts 265°
2026-04-28 23:58 22.93188 71.66712 35746 ft 473 kts 265°
2026-04-28 23:59 22.92162 71.59666 35747 ft 472 kts 265°
2026-04-28 23:59 22.91131 71.52614 35746 ft 472 kts 265°
2026-04-29 00:00 22.90107 71.45626 35750 ft 472 kts 265°
2026-04-29 00:00 22.89068 71.38561 35752 ft 472 kts 265°
2026-04-29 00:01 22.88036 71.31564 35755 ft 472 kts 265°
2026-04-29 00:01 22.86990 71.24494 35753 ft 472 kts 265°
2026-04-29 00:02 22.85954 71.17518 35759 ft 471 kts 265°
2026-04-29 00:02 22.84910 71.10506 35759 ft 471 kts 265°
2026-04-29 00:03 22.83861 71.03483 35760 ft 471 kts 265°
2026-04-29 00:03 22.82809 70.96465 35760 ft 471 kts 265°
2026-04-29 00:04 22.81757 70.89459 35761 ft 471 kts 265°
2026-04-29 00:04 22.81014 70.82430 35873 ft 466 kts 274°
2026-04-29 00:05 22.81122 70.78931 36112 ft 463 kts 276°
2026-04-29 00:05 22.81304 70.75451 36348 ft 461 kts 277°
2026-04-29 00:05 22.81516 70.72029 36564 ft 460 kts 277°
2026-04-29 00:05 22.81746 70.68565 36769 ft 459 kts 277°
2026-04-29 00:06 22.81978 70.65115 36967 ft 459 kts 277°
2026-04-29 00:06 22.82207 70.61667 37161 ft 458 kts 277°
2026-04-29 00:06 22.82431 70.58226 37354 ft 457 kts 277°
2026-04-29 00:06 22.82650 70.54789 37541 ft 456 kts 277°
2026-04-29 00:07 22.82866 70.51360 37711 ft 456 kts 277°
2026-04-29 00:07 22.83081 70.47915 37759 ft 458 kts 277°
2026-04-29 00:07 22.83509 70.41029 37758 ft 460 kts 277°
2026-04-29 00:08 22.83933 70.34107 37755 ft 460 kts 277°
2026-04-29 00:08 22.84355 70.27192 37754 ft 460 kts 277°
2026-04-29 00:09 22.84776 70.20264 37753 ft 460 kts 277°
2026-04-29 00:09 22.85193 70.13336 37750 ft 460 kts 277°
2026-04-29 00:10 22.85605 70.06457 37754 ft 460 kts 277°
2026-04-29 00:10 22.86016 69.99532 37753 ft 459 kts 277°
2026-04-29 00:11 22.86424 69.92605 37745 ft 459 kts 277°
2026-04-29 00:12 22.87031 69.82226 37753 ft 459 kts 277°
2026-04-29 00:12 22.87428 69.75350 37748 ft 460 kts 277°
2026-04-29 00:13 22.87827 69.68434 37752 ft 459 kts 277°
2026-04-29 00:13 22.88266 69.61526 37753 ft 459 kts 277°
2026-04-29 00:14 22.88724 69.54597 37743 ft 459 kts 277°
2026-04-29 00:14 22.89172 69.47688 37744 ft 460 kts 277°
2026-04-29 00:15 22.89609 69.40809 37744 ft 460 kts 277°
2026-04-29 00:15 22.90044 69.33890 37745 ft 460 kts 277°
2026-04-29 00:16 22.90476 69.26974 37743 ft 459 kts 277°
2026-04-29 00:16 22.90906 69.20052 37744 ft 459 kts 277°
2026-04-29 00:17 22.91333 69.13130 37742 ft 459 kts 277°
2026-04-29 00:17 22.91755 69.06231 37739 ft 459 kts 277°
2026-04-29 00:18 22.92176 68.99309 37738 ft 459 kts 276°
2026-04-29 00:18 22.92590 68.92431 37736 ft 459 kts 276°
2026-04-29 00:19 22.93005 68.85511 37742 ft 459 kts 276°
2026-04-29 00:19 22.93416 68.78592 37742 ft 459 kts 276°
2026-04-29 00:20 22.93824 68.71676 37740 ft 459 kts 276°
2026-04-29 00:20 22.94231 68.64739 37735 ft 459 kts 276°
2026-04-29 00:21 22.94633 68.57823 37732 ft 459 kts 276°
2026-04-29 00:21 22.95029 68.50961 37736 ft 459 kts 276°
2026-04-29 00:22 22.95425 68.44047 37737 ft 459 kts 276°
2026-04-29 00:22 22.95819 68.37121 37736 ft 459 kts 276°
2026-04-29 00:23 22.95948 68.30171 37737 ft 461 kts 272°
2026-04-29 00:23 22.95865 68.23252 37739 ft 461 kts 272°
2026-04-29 00:24 22.95807 68.16285 37735 ft 461 kts 272°
2026-04-29 00:24 22.95793 68.10498 37735 ft 461 kts 272°
2026-04-29 00:25 22.95792 68.03541 37734 ft 461 kts 272°
2026-04-29 00:25 22.95790 67.96572 37735 ft 461 kts 272°
2026-04-29 00:26 22.95783 67.89649 37735 ft 461 kts 272°
2026-04-29 00:26 22.95783 67.82689 37735 ft 461 kts 273°
2026-04-29 00:27 22.95802 67.75725 37736 ft 461 kts 273°
2026-04-29 00:27 22.95820 67.68762 37737 ft 461 kts 272°
2026-04-29 00:28 22.95832 67.61795 37736 ft 461 kts 272°
2026-04-29 00:28 22.95839 67.54865 37732 ft 461 kts 272°
2026-04-29 00:29 22.95843 67.47902 37732 ft 462 kts 272°
2026-04-29 00:29 22.95844 67.40931 37734 ft 462 kts 272°
2026-04-29 00:30 22.95842 67.33963 37734 ft 462 kts 272°
2026-04-29 00:30 22.95837 67.26983 37734 ft 462 kts 272°
2026-04-29 00:31 22.95829 67.20004 37733 ft 462 kts 272°
2026-04-29 00:31 22.95818 67.13075 37735 ft 462 kts 272°
2026-04-29 00:32 22.95804 67.06097 37733 ft 462 kts 272°
2026-04-29 00:32 22.95787 66.99117 37734 ft 462 kts 272°
2026-04-29 00:33 22.95784 66.92141 37733 ft 462 kts 272°
2026-04-29 00:33 22.95833 66.85168 37729 ft 462 kts 273°
2026-04-29 00:34 22.95885 66.78234 37731 ft 462 kts 272°
2026-04-29 00:34 22.95927 66.71264 37733 ft 462 kts 272°
2026-04-29 00:35 22.95962 66.64275 37729 ft 462 kts 272°
2026-04-29 00:35 22.95992 66.57303 37730 ft 462 kts 272°
2026-04-29 00:36 22.96020 66.50350 37730 ft 462 kts 272°
2026-04-29 00:36 22.96045 66.43365 37731 ft 463 kts 272°
2026-04-29 00:37 22.96067 66.36384 37731 ft 463 kts 272°
2026-04-29 00:37 22.96086 66.29393 37730 ft 463 kts 272°
2026-04-29 00:38 22.96102 66.22406 37732 ft 463 kts 272°
2026-04-29 00:38 22.96114 66.15449 37731 ft 463 kts 272°
2026-04-29 00:39 22.96124 66.08449 37731 ft 464 kts 272°
2026-04-29 00:39 22.96131 66.01450 37733 ft 464 kts 272°
2026-04-29 00:40 22.96134 65.94441 37736 ft 464 kts 272°
2026-04-29 00:40 22.96135 65.87474 37735 ft 464 kts 272°
2026-04-29 00:41 22.96132 65.80475 37735 ft 464 kts 272°
2026-04-29 00:41 22.96126 65.73469 37733 ft 464 kts 272°
2026-04-29 00:42 22.96117 65.66458 37733 ft 464 kts 272°
2026-04-29 00:42 22.96106 65.59440 37732 ft 464 kts 272°
2026-04-29 00:43 22.96091 65.52475 37734 ft 464 kts 272°
2026-04-29 00:43 22.96073 65.45454 37731 ft 464 kts 272°
2026-04-29 00:44 22.96052 65.38482 37733 ft 464 kts 272°
2026-04-29 00:44 22.96028 65.31471 37735 ft 464 kts 271°
2026-04-29 00:45 22.96001 65.24458 37737 ft 464 kts 271°
2026-04-29 00:45 22.95970 65.17434 37742 ft 464 kts 271°
2026-04-29 00:46 22.95937 65.10455 37740 ft 465 kts 271°
2026-04-29 00:46 22.95901 65.03441 37738 ft 465 kts 271°
2026-04-29 00:47 22.95861 64.96419 37744 ft 465 kts 271°
2026-04-29 00:47 22.95819 64.89403 37740 ft 465 kts 271°
2026-04-29 00:48 22.95939 64.82424 37743 ft 464 kts 277°
2026-04-29 00:48 22.96596 64.75464 37740 ft 463 kts 277°
2026-04-29 00:49 22.97340 64.68518 37740 ft 463 kts 278°
2026-04-29 00:49 22.98086 64.61614 37744 ft 463 kts 278°
2026-04-29 00:50 22.98825 64.54672 37741 ft 463 kts 277°
2026-04-29 00:50 22.99556 64.47717 37742 ft 463 kts 277°
2026-04-29 00:51 23.00283 64.40769 37739 ft 463 kts 277°
2026-04-29 00:51 23.01002 64.33860 37742 ft 463 kts 277°
2026-04-29 00:52 23.01723 64.26909 37743 ft 463 kts 277°
2026-04-29 00:52 23.02439 64.19970 37739 ft 463 kts 277°
2026-04-29 00:53 23.03154 64.13017 37743 ft 463 kts 277°
2026-04-29 00:53 23.03863 64.06094 37744 ft 463 kts 277°
2026-04-29 00:54 23.04572 63.99138 37746 ft 463 kts 277°
2026-04-29 00:54 23.05279 63.92171 37743 ft 463 kts 277°
2026-04-29 00:55 23.05816 63.85220 37746 ft 464 kts 273°
2026-04-29 00:55 23.05957 63.78197 37743 ft 465 kts 272°
2026-04-29 00:56 23.06031 63.71214 37745 ft 465 kts 271°
2026-04-29 00:56 23.06097 63.64171 37744 ft 465 kts 271°
2026-04-29 00:57 23.06166 63.57153 37746 ft 465 kts 271°
2026-04-29 00:57 23.06237 63.50165 37748 ft 465 kts 271°
2026-04-29 00:58 23.06305 63.43140 37743 ft 465 kts 271°
2026-04-29 00:58 23.06370 63.36116 37746 ft 465 kts 271°
2026-04-29 00:59 23.06431 63.29140 37748 ft 465 kts 271°
2026-04-29 00:59 23.06490 63.22116 37746 ft 464 kts 271°
2026-04-29 01:00 23.06545 63.15098 37749 ft 464 kts 271°
2026-04-29 01:00 23.06597 63.08074 37745 ft 464 kts 271°
2026-04-29 01:01 23.06646 63.01103 37746 ft 464 kts 271°
2026-04-29 01:01 23.06692 62.94087 37745 ft 464 kts 271°
2026-04-29 01:02 23.06735 62.87065 37741 ft 464 kts 271°
2026-04-29 01:02 23.06775 62.80044 37743 ft 464 kts 271°
2026-04-29 01:03 23.06812 62.73021 37743 ft 464 kts 271°
2026-04-29 01:03 23.06846 62.66057 37743 ft 464 kts 270°
2026-04-29 01:04 23.06876 62.59047 37744 ft 464 kts 270°
2026-04-29 01:04 23.06904 62.52040 37744 ft 464 kts 270°
2026-04-29 01:05 23.06928 62.45024 37748 ft 464 kts 270°
2026-04-29 01:05 23.06950 62.38054 37745 ft 464 kts 270°
2026-04-29 01:06 23.06968 62.31025 37743 ft 464 kts 270°
2026-04-29 01:06 23.06983 62.24056 37744 ft 464 kts 270°
2026-04-29 01:07 23.06995 62.17040 37740 ft 464 kts 270°
2026-04-29 01:07 23.07004 62.10035 37745 ft 464 kts 270°
2026-04-29 01:08 23.07010 62.03018 37747 ft 464 kts 270°
2026-04-29 01:08 23.07013 61.96047 37748 ft 464 kts 270°
2026-04-29 01:09 23.07012 61.89024 37741 ft 464 kts 270°
2026-04-29 01:09 23.07009 61.82020 37744 ft 464 kts 270°
2026-04-29 01:10 23.07003 61.75010 37746 ft 464 kts 270°
2026-04-29 01:10 23.06997 61.67992 37748 ft 464 kts 270°
2026-04-29 01:11 23.06981 61.60971 37747 ft 464 kts 270°
2026-04-29 01:11 23.06962 61.54001 37743 ft 464 kts 270°
2026-04-29 01:12 23.06705 61.47003 37754 ft 464 kts 264°
2026-04-29 01:12 23.05875 61.40030 37746 ft 465 kts 262°
2026-04-29 01:13 23.04956 61.33122 37752 ft 465 kts 262°
2026-04-29 01:13 23.04019 61.26159 37750 ft 465 kts 262°
2026-04-29 01:14 23.03247 61.20389 37753 ft 465 kts 262°
2026-04-29 01:14 23.02322 61.13442 37749 ft 465 kts 262°
2026-04-29 01:15 23.01396 61.06494 37751 ft 465 kts 262°
2026-04-29 01:15 23.00464 60.99533 37754 ft 465 kts 262°
2026-04-29 01:16 22.99530 60.92583 37754 ft 465 kts 262°
2026-04-29 01:16 22.98598 60.85625 37756 ft 465 kts 262°
2026-04-29 01:17 22.97667 60.78727 37755 ft 465 kts 262°
2026-04-29 01:17 22.96725 60.71774 37755 ft 466 kts 262°
2026-04-29 01:18 22.95779 60.64813 37759 ft 466 kts 262°
2026-04-29 01:18 22.94358 60.54383 37758 ft 466 kts 262°
2026-04-29 01:19 22.93407 60.47432 37754 ft 466 kts 262°
2026-04-29 01:19 22.92452 60.40477 37754 ft 466 kts 262°
2026-04-29 01:20 22.91499 60.33558 37757 ft 466 kts 262°
2026-04-29 01:20 22.90530 60.26552 37758 ft 466 kts 262°
2026-04-29 01:21 22.89570 60.19644 37758 ft 466 kts 262°
2026-04-29 01:21 22.88590 60.12671 37756 ft 466 kts 262°
2026-04-29 01:22 22.87609 60.05703 37757 ft 467 kts 262°
2026-04-29 01:22 22.86631 59.98779 37756 ft 467 kts 262°
2026-04-29 01:23 22.85643 59.91801 37758 ft 467 kts 261°
2026-04-29 01:23 22.84658 59.84872 37757 ft 467 kts 262°
2026-04-29 01:24 22.83690 59.77913 37756 ft 467 kts 262°
2026-04-29 01:24 22.82727 59.70947 37755 ft 467 kts 262°
2026-04-29 01:25 22.81757 59.63985 37755 ft 467 kts 262°
2026-04-29 01:25 22.80781 59.57028 37761 ft 467 kts 261°
2026-04-29 01:26 22.79801 59.50067 37764 ft 467 kts 261°
2026-04-29 01:26 22.78817 59.43100 37779 ft 467 kts 261°
2026-04-29 01:27 22.77836 59.36175 37787 ft 467 kts 261°
2026-04-29 01:27 22.76850 59.29228 37799 ft 467 kts 261°
2026-04-29 01:28 22.75850 59.22271 37808 ft 467 kts 261°
2026-04-29 01:28 22.74846 59.15302 37814 ft 467 kts 261°
2026-04-29 01:29 22.73842 59.08342 37822 ft 467 kts 261°
2026-04-29 01:29 22.72837 59.01386 37836 ft 468 kts 261°
2026-04-29 01:30 22.71828 58.94424 37841 ft 468 kts 261°
2026-04-29 01:30 22.70819 58.87488 37842 ft 468 kts 261°
2026-04-29 01:31 22.69802 58.80518 37839 ft 468 kts 261°
2026-04-29 01:31 22.68782 58.73545 37835 ft 469 kts 261°
2026-04-29 01:32 22.67765 58.66609 37839 ft 469 kts 261°
2026-04-29 01:32 22.67540 58.59570 37836 ft 470 kts 276°
2026-04-29 01:33 22.68932 58.52644 37838 ft 471 kts 284°
2026-04-29 01:33 22.70725 58.45812 37841 ft 472 kts 284°
2026-04-29 01:34 22.72563 58.38968 37841 ft 472 kts 284°
2026-04-29 01:34 22.74371 58.32127 37845 ft 472 kts 284°
2026-04-29 01:35 22.76156 58.25293 37848 ft 471 kts 284°
2026-04-29 01:35 22.77920 58.18505 37846 ft 471 kts 284°
2026-04-29 01:36 22.79696 58.11665 37845 ft 470 kts 284°
2026-04-29 01:36 22.81470 58.04820 37852 ft 470 kts 284°
2026-04-29 01:37 22.83226 57.98031 37852 ft 470 kts 284°
2026-04-29 01:37 22.84987 57.91215 37856 ft 469 kts 284°
2026-04-29 01:38 22.86742 57.84406 37859 ft 469 kts 284°
2026-04-29 01:38 22.88497 57.77581 37864 ft 469 kts 284°
2026-04-29 01:39 22.90238 57.70755 37871 ft 469 kts 283°
2026-04-29 01:39 22.91922 57.63967 37877 ft 468 kts 283°
2026-04-29 01:40 22.93610 57.57136 37878 ft 468 kts 283°
2026-04-29 01:40 22.95302 57.50309 37884 ft 468 kts 283°
2026-04-29 01:41 22.96995 57.43483 37890 ft 468 kts 283°
2026-04-29 01:41 22.98501 57.36615 37890 ft 466 kts 276°
2026-04-29 01:42 22.98477 57.29669 37891 ft 463 kts 260°
2026-04-29 01:42 22.96500 57.23037 37889 ft 463 kts 245°
2026-04-29 01:43 22.93591 57.16790 37877 ft 464 kts 243°
2026-04-29 01:43 22.90560 57.10584 37876 ft 465 kts 243°
2026-04-29 01:44 22.87566 57.04412 37866 ft 465 kts 243°
2026-04-29 01:44 22.84568 56.98170 37863 ft 466 kts 243°
2026-04-29 01:45 22.81582 56.91942 37849 ft 466 kts 243°
2026-04-29 01:45 22.78587 56.85701 37844 ft 466 kts 243°
2026-04-29 01:46 22.75589 56.79455 37840 ft 466 kts 243°
2026-04-29 01:46 22.72614 56.73265 37833 ft 466 kts 243°
2026-04-29 01:47 22.69614 56.67035 37823 ft 467 kts 243°
2026-04-29 01:47 22.66606 56.60797 37819 ft 467 kts 243°
2026-04-29 01:48 22.63590 56.54550 37810 ft 467 kts 243°
2026-04-29 01:48 22.60575 56.48312 37809 ft 467 kts 243°
2026-04-29 01:49 22.57574 56.42112 37806 ft 468 kts 243°
2026-04-29 01:49 22.54552 56.35880 37804 ft 468 kts 243°
2026-04-29 01:50 22.51525 56.29638 37795 ft 468 kts 243°
2026-04-29 01:50 22.48495 56.23384 37796 ft 468 kts 243°
2026-04-29 01:51 22.45464 56.17135 37794 ft 469 kts 243°
2026-04-29 01:51 22.42447 56.10930 37791 ft 469 kts 243°
2026-04-29 01:52 22.39414 56.04697 37792 ft 469 kts 243°
2026-04-29 01:52 22.36368 55.98460 37787 ft 469 kts 242°
2026-04-29 01:53 22.33305 55.92224 37785 ft 469 kts 242°
2026-04-29 01:53 22.30242 55.85995 37782 ft 470 kts 242°
2026-04-29 01:54 22.27168 55.79749 37782 ft 470 kts 242°
2026-04-29 01:54 22.24094 55.73510 37776 ft 470 kts 242°
2026-04-29 01:55 22.21048 55.67303 37776 ft 471 kts 242°
2026-04-29 01:55 22.18054 55.61008 37778 ft 471 kts 247°
2026-04-29 01:56 22.16318 55.54218 37779 ft 471 kts 263°
2026-04-29 01:56 22.16368 55.47196 37783 ft 473 kts 273°
2026-04-29 01:57 22.16948 55.40103 37785 ft 473 kts 274°
2026-04-29 01:57 22.17576 55.33057 37782 ft 473 kts 274°
2026-04-29 01:58 22.18076 55.27172 37785 ft 473 kts 274°
2026-04-29 01:58 22.18651 55.20095 37784 ft 473 kts 273°
2026-04-29 01:59 22.19216 55.13007 37787 ft 473 kts 273°
2026-04-29 01:59 22.19778 55.05923 37785 ft 473 kts 273°
2026-04-29 02:00 22.20344 54.98832 37782 ft 473 kts 273°
2026-04-29 02:00 22.20904 54.91800 37787 ft 473 kts 273°
2026-04-29 02:01 22.21465 54.84722 37782 ft 473 kts 273°
2026-04-29 02:01 22.22022 54.77644 37781 ft 473 kts 273°
2026-04-29 02:02 22.22576 54.70562 37788 ft 473 kts 273°
2026-04-29 02:02 22.23123 54.63532 37783 ft 473 kts 273°
2026-04-29 02:03 22.23671 54.56455 37790 ft 473 kts 273°
2026-04-29 02:03 22.24216 54.49372 37786 ft 473 kts 273°
2026-04-29 02:04 22.24758 54.42294 37791 ft 473 kts 273°
2026-04-29 02:04 22.25295 54.35225 37789 ft 472 kts 273°
2026-04-29 02:05 22.25829 54.28164 37791 ft 472 kts 272°
2026-04-29 02:05 22.26358 54.21128 37789 ft 472 kts 273°
2026-04-29 02:06 22.26887 54.14050 37792 ft 472 kts 272°
2026-04-29 02:06 22.27414 54.06972 37786 ft 472 kts 272°
2026-04-29 02:07 22.27934 53.99947 37789 ft 472 kts 272°
2026-04-29 02:07 22.28454 53.92866 37789 ft 472 kts 272°
2026-04-29 02:08 22.28971 53.85788 37788 ft 472 kts 272°
2026-04-29 02:08 22.29481 53.78758 37786 ft 472 kts 272°
2026-04-29 02:09 22.29992 53.71687 37786 ft 472 kts 272°
2026-04-29 02:09 22.30496 53.64647 37788 ft 472 kts 272°
2026-04-29 02:10 22.31003 53.57575 37787 ft 472 kts 272°
2026-04-29 02:10 22.31504 53.50494 37786 ft 472 kts 272°
2026-04-29 02:11 22.31998 53.43412 37785 ft 472 kts 272°
2026-04-29 02:11 22.32487 53.36377 37784 ft 472 kts 272°
2026-04-29 02:12 22.32977 53.29292 37785 ft 472 kts 272°
2026-04-29 02:12 22.33465 53.22213 37786 ft 472 kts 272°
2026-04-29 02:13 22.33947 53.15169 37784 ft 472 kts 272°
2026-04-29 02:13 22.34429 53.08083 37786 ft 472 kts 272°
2026-04-29 02:14 22.34907 53.00999 37784 ft 472 kts 272°
2026-04-29 02:14 22.35383 52.93917 37781 ft 472 kts 272°
2026-04-29 02:15 22.35851 52.86879 37787 ft 473 kts 272°
2026-04-29 02:15 22.36321 52.79775 37783 ft 473 kts 272°
2026-04-29 02:16 22.36788 52.72687 37785 ft 473 kts 272°
2026-04-29 02:16 22.37252 52.65588 37785 ft 473 kts 272°
2026-04-29 02:17 22.37709 52.58541 37787 ft 473 kts 272°
2026-04-29 02:17 22.38166 52.51459 37781 ft 473 kts 272°
2026-04-29 02:18 22.38620 52.44366 37784 ft 473 kts 272°
2026-04-29 02:18 22.39071 52.37280 37784 ft 473 kts 272°
2026-04-29 02:19 22.39518 52.30190 37782 ft 473 kts 272°
2026-04-29 02:19 22.39962 52.23112 37779 ft 473 kts 272°
2026-04-29 02:20 22.40403 52.16038 37783 ft 473 kts 272°
2026-04-29 02:20 22.40844 52.08949 37780 ft 472 kts 272°
2026-04-29 02:21 22.41281 52.01858 37776 ft 472 kts 272°
2026-04-29 02:21 22.41716 51.94775 37777 ft 472 kts 272°
2026-04-29 02:22 22.42144 51.87730 37777 ft 472 kts 271°
2026-04-29 02:22 22.42567 51.80646 37778 ft 472 kts 271°
2026-04-29 02:23 22.42988 51.73554 37775 ft 472 kts 271°
2026-04-29 02:23 22.43408 51.66468 37776 ft 472 kts 271°
2026-04-29 02:24 22.43825 51.59379 37777 ft 472 kts 271°
2026-04-29 02:25 22.44441 51.48802 37778 ft 472 kts 271°
2026-04-29 02:25 22.44850 51.41718 37776 ft 472 kts 271°
2026-04-29 02:26 22.45255 51.34635 37777 ft 472 kts 271°
2026-04-29 02:26 22.45657 51.27559 37778 ft 471 kts 271°
2026-04-29 02:27 22.46056 51.20480 37776 ft 471 kts 271°
2026-04-29 02:27 22.46453 51.13399 37778 ft 471 kts 271°
2026-04-29 02:28 22.46846 51.06367 37780 ft 470 kts 271°
2026-04-29 02:28 22.47236 50.99304 37776 ft 470 kts 271°
2026-04-29 02:29 22.47619 50.92246 37774 ft 470 kts 271°
2026-04-29 02:29 22.47998 50.85229 37781 ft 470 kts 271°
2026-04-29 02:30 22.48377 50.78176 37777 ft 469 kts 271°
2026-04-29 02:30 22.48754 50.71118 37779 ft 469 kts 271°
2026-04-29 02:31 22.49127 50.64063 37779 ft 469 kts 271°
2026-04-29 02:31 22.49495 50.57055 37777 ft 469 kts 271°
2026-04-29 02:32 22.49862 50.50002 37777 ft 469 kts 271°
2026-04-29 02:32 22.50226 50.42947 37777 ft 469 kts 271°
2026-04-29 02:33 22.50586 50.35900 37774 ft 469 kts 271°
2026-04-29 02:33 22.50943 50.28855 37777 ft 469 kts 271°
2026-04-29 02:34 22.51296 50.21852 37777 ft 469 kts 271°
2026-04-29 02:34 22.51647 50.14808 37776 ft 469 kts 271°
2026-04-29 02:35 22.51995 50.07769 37774 ft 468 kts 271°
2026-04-29 02:35 22.52339 50.00735 37775 ft 468 kts 271°
2026-04-29 02:36 22.52680 49.93711 37774 ft 468 kts 271°
2026-04-29 02:36 22.53017 49.86699 37772 ft 468 kts 271°
2026-04-29 02:37 22.53352 49.79671 37774 ft 468 kts 271°
2026-04-29 02:37 22.53763 49.72644 37770 ft 468 kts 273°
2026-04-29 02:38 22.54475 49.65624 37771 ft 469 kts 274°
2026-04-29 02:38 22.55211 49.58665 37772 ft 468 kts 274°
2026-04-29 02:39 22.55902 49.51656 37774 ft 468 kts 274°
2026-04-29 02:39 22.56563 49.44660 37772 ft 468 kts 273°
2026-04-29 02:40 22.57218 49.37642 37771 ft 468 kts 273°
2026-04-29 02:40 22.57866 49.30675 37773 ft 467 kts 273°
2026-04-29 02:41 22.58516 49.23677 37771 ft 467 kts 273°
2026-04-29 02:41 22.59163 49.16680 37770 ft 467 kts 273°
2026-04-29 02:42 22.59807 49.09686 37771 ft 467 kts 273°
2026-04-29 02:42 22.60125 49.06173 39266 ft 471 kts 275°
2026-04-29 02:42 22.60447 49.02629 39038 ft 481 kts 275°
2026-04-29 02:42 22.60780 48.98989 38798 ft 490 kts 275°
2026-04-29 02:43 22.61120 48.95277 38550 ft 494 kts 275°
2026-04-29 02:43 22.61459 48.91563 38301 ft 493 kts 275°
2026-04-29 02:43 22.61790 48.87921 38063 ft 492 kts 275°
2026-04-29 02:44 22.62457 48.80542 37999 ft 492 kts 275°
2026-04-29 02:44 22.63119 48.73157 38000 ft 492 kts 275°
2026-04-29 02:45 22.63777 48.65782 38000 ft 492 kts 275°
2026-04-29 02:45 22.64322 48.59652 38000 ft 492 kts 275°
2026-04-29 02:46 22.64974 48.52276 38000 ft 492 kts 275°
2026-04-29 02:46 22.65623 48.44891 38000 ft 492 kts 275°
2026-04-29 02:47 22.66264 48.37559 38000 ft 492 kts 275°
2026-04-29 02:47 22.66906 48.30181 38000 ft 492 kts 275°
2026-04-29 02:48 22.67544 48.22808 38000 ft 492 kts 275°
2026-04-29 02:48 22.68179 48.15429 38000 ft 492 kts 275°
2026-04-29 02:49 22.68811 48.08049 38000 ft 492 kts 275°
2026-04-29 02:49 22.69442 48.00665 38000 ft 492 kts 275°
2026-04-29 02:50 22.70061 47.93330 38000 ft 492 kts 275°
2026-04-29 02:50 22.70676 47.85944 38000 ft 492 kts 275°
2026-04-29 02:51 22.71289 47.78551 38000 ft 492 kts 275°
2026-04-29 02:51 22.71897 47.71206 38000 ft 492 kts 275°
2026-04-29 02:52 22.72506 47.63809 38000 ft 492 kts 275°
2026-04-29 02:52 22.73110 47.56421 38000 ft 492 kts 275°
2026-04-29 02:53 22.73712 47.49030 38000 ft 492 kts 275°
2026-04-29 02:53 22.74306 47.41687 38000 ft 492 kts 275°
2026-04-29 02:54 22.74900 47.34309 38000 ft 492 kts 275°
2026-04-29 02:54 22.75491 47.26911 38000 ft 492 kts 275°
2026-04-29 02:55 22.76079 47.19523 38000 ft 492 kts 275°
2026-04-29 02:55 22.76669 47.12128 38000 ft 492 kts 275°
2026-04-29 02:56 22.77252 47.04784 38000 ft 492 kts 275°
2026-04-29 02:56 22.77834 46.97388 38000 ft 492 kts 275°
2026-04-29 02:57 22.78414 46.89987 38000 ft 492 kts 275°
2026-04-29 02:57 22.78985 46.82664 38000 ft 492 kts 274°
2026-04-29 02:58 22.79559 46.75253 38000 ft 492 kts 274°
2026-04-29 02:58 22.80129 46.67857 38000 ft 492 kts 274°
2026-04-29 02:59 22.80692 46.60503 38000 ft 492 kts 274°
2026-04-29 02:59 22.81255 46.53110 38000 ft 492 kts 274°
2026-04-29 03:00 22.81814 46.45719 38000 ft 492 kts 274°
2026-04-29 03:00 22.82370 46.38327 38000 ft 492 kts 274°
2026-04-29 03:01 22.82924 46.30931 38000 ft 492 kts 274°
2026-04-29 03:01 22.83467 46.23532 38000 ft 492 kts 274°
2026-04-29 03:02 22.84003 46.16182 38001 ft 492 kts 274°
2026-04-29 03:02 22.84542 46.08785 38000 ft 492 kts 274°
2026-04-29 03:03 22.85077 46.01392 38000 ft 492 kts 274°
2026-04-29 03:03 22.85610 45.93989 38000 ft 492 kts 274°
2026-04-29 03:04 22.86140 45.86578 38000 ft 492 kts 274°
2026-04-29 03:04 22.86662 45.79230 38000 ft 492 kts 274°
2026-04-29 03:05 22.87183 45.71839 38000 ft 492 kts 274°
2026-04-29 03:05 22.87702 45.64425 38000 ft 492 kts 274°
2026-04-29 03:06 22.88217 45.57026 38000 ft 492 kts 274°
2026-04-29 03:06 22.88729 45.49628 38000 ft 492 kts 274°
2026-04-29 03:07 22.89234 45.42274 38000 ft 492 kts 274°
2026-04-29 03:07 22.89739 45.34867 38000 ft 492 kts 274°
2026-04-29 03:08 22.90240 45.27476 38000 ft 492 kts 274°
2026-04-29 03:08 22.90738 45.20059 38000 ft 492 kts 274°
2026-04-29 03:09 22.91232 45.12665 38000 ft 492 kts 274°
2026-04-29 03:09 22.91727 45.05256 38000 ft 492 kts 274°
2026-04-29 03:10 22.92215 44.97854 38001 ft 492 kts 274°
2026-04-29 03:10 22.92693 44.90485 38000 ft 492 kts 274°
2026-04-29 03:11 22.93168 44.83121 38000 ft 492 kts 274°
2026-04-29 03:11 22.93645 44.75714 38000 ft 492 kts 274°
2026-04-29 03:12 22.94219 44.68325 38000 ft 492 kts 279°
2026-04-29 03:12 22.95996 44.61148 38000 ft 492 kts 287°
2026-04-29 03:13 22.98158 44.54091 38000 ft 492 kts 288°
2026-04-29 03:13 23.00364 44.47045 38000 ft 492 kts 288°
2026-04-29 03:14 23.02552 44.39993 38000 ft 492 kts 288°
2026-04-29 03:14 23.04713 44.32974 38000 ft 492 kts 288°
2026-04-29 03:15 23.06879 44.25908 38000 ft 492 kts 288°
2026-04-29 03:15 23.09040 44.18849 38000 ft 492 kts 288°
2026-04-29 03:16 23.11198 44.11789 38000 ft 492 kts 288°
2026-04-29 03:16 23.13351 44.04732 38000 ft 492 kts 288°
2026-04-29 03:17 23.15504 43.97664 38000 ft 492 kts 288°
2026-04-29 03:17 23.17644 43.90624 38000 ft 492 kts 288°
2026-04-29 03:18 23.19787 43.83564 38000 ft 492 kts 288°
2026-04-29 03:18 23.21934 43.76479 38000 ft 492 kts 288°
2026-04-29 03:19 23.24078 43.69390 38000 ft 492 kts 288°
2026-04-29 03:19 23.26198 43.62368 38000 ft 492 kts 288°
2026-04-29 03:20 23.28333 43.55284 38000 ft 492 kts 288°
2026-04-29 03:20 23.30463 43.48203 38000 ft 492 kts 288°
2026-04-29 03:21 23.32592 43.41114 38000 ft 492 kts 288°
2026-04-29 03:21 23.34704 43.34066 38000 ft 492 kts 288°
2026-04-29 03:22 23.36829 43.26966 38000 ft 492 kts 288°
2026-04-29 03:22 23.38947 43.19874 38000 ft 492 kts 288°
2026-04-29 03:23 23.41067 43.12764 38000 ft 492 kts 288°
2026-04-29 03:23 23.43163 43.05714 38000 ft 492 kts 288°
2026-04-29 03:24 23.45268 42.98601 38000 ft 492 kts 287°
2026-04-29 03:24 23.47366 42.91503 38000 ft 492 kts 287°
2026-04-29 03:25 23.49464 42.84397 38000 ft 492 kts 287°
2026-04-29 03:25 23.51557 42.77293 38000 ft 492 kts 287°
2026-04-29 03:26 23.53641 42.70229 38000 ft 492 kts 287°
2026-04-29 03:26 23.55733 42.63121 38000 ft 492 kts 287°
2026-04-29 03:27 23.57820 42.56014 38000 ft 492 kts 287°
2026-04-29 03:27 23.59907 42.48893 38000 ft 492 kts 287°
2026-04-29 03:28 23.61984 42.41795 38000 ft 492 kts 287°
2026-04-29 03:28 23.64065 42.34673 38000 ft 492 kts 287°
2026-04-29 03:29 23.66140 42.27563 38000 ft 492 kts 287°
2026-04-29 03:29 23.68211 42.20443 38000 ft 492 kts 287°
2026-04-29 03:30 23.70265 42.13332 38000 ft 492 kts 287°
2026-04-29 03:30 23.71990 42.07355 38000 ft 492 kts 287°
2026-04-29 03:31 23.75065 41.96698 38000 ft 492 kts 287°
2026-04-29 03:31 23.77129 41.89560 38000 ft 492 kts 287°
2026-04-29 03:32 23.79191 41.82413 38000 ft 492 kts 287°
2026-04-29 03:32 23.81245 41.75285 38000 ft 492 kts 287°
2026-04-29 03:33 23.83298 41.68142 38000 ft 492 kts 287°
2026-04-29 03:33 23.85340 41.61002 38000 ft 492 kts 287°
2026-04-29 03:34 23.87369 41.53905 38000 ft 492 kts 287°
2026-04-29 03:34 23.89404 41.46752 38000 ft 492 kts 287°
2026-04-29 03:35 23.91432 41.39583 38000 ft 492 kts 287°
2026-04-29 03:35 23.93448 41.32467 38000 ft 492 kts 287°
2026-04-29 03:36 23.95474 41.25323 38000 ft 492 kts 287°
2026-04-29 03:36 23.97500 41.18157 38000 ft 492 kts 287°
2026-04-29 03:37 23.99519 41.11003 38000 ft 492 kts 287°
2026-04-29 03:37 24.01524 41.03890 38000 ft 492 kts 287°
2026-04-29 03:38 24.03536 40.96735 38000 ft 492 kts 287°
2026-04-29 03:38 24.05554 40.89566 38000 ft 492 kts 287°
2026-04-29 03:39 24.07561 40.82397 38000 ft 492 kts 287°
2026-04-29 03:39 24.09554 40.75264 38000 ft 492 kts 287°
2026-04-29 03:40 24.11556 40.68088 38000 ft 492 kts 287°
2026-04-29 03:40 24.13559 40.60896 38000 ft 492 kts 287°
2026-04-29 03:41 24.15568 40.53729 37997 ft 492 kts 288°
2026-04-29 03:41 24.18355 40.46932 38000 ft 492 kts 296°
2026-04-29 03:42 24.21517 40.40258 38000 ft 493 kts 297°
2026-04-29 03:42 24.24724 40.33623 38000 ft 493 kts 297°
2026-04-29 03:43 24.27924 40.26976 38000 ft 493 kts 297°
2026-04-29 03:43 24.31111 40.20316 38001 ft 493 kts 297°
2026-04-29 03:44 24.34295 40.13642 38000 ft 493 kts 297°
2026-04-29 03:44 24.37467 40.06982 38000 ft 493 kts 297°
2026-04-29 03:45 24.40616 40.00363 38000 ft 493 kts 297°
2026-04-29 03:45 24.43789 39.93684 38000 ft 493 kts 297°
2026-04-29 03:46 24.46955 39.87011 38000 ft 493 kts 297°
2026-04-29 03:46 24.50121 39.80328 38000 ft 493 kts 297°
2026-04-29 03:47 24.53283 39.73645 38000 ft 493 kts 297°
2026-04-29 03:47 24.56458 39.67034 38000 ft 493 kts 299°
2026-04-29 03:48 24.59898 39.60511 38000 ft 493 kts 300°
2026-04-29 03:48 24.63380 39.54012 38000 ft 493 kts 300°
2026-04-29 03:49 24.66833 39.47471 38000 ft 493 kts 300°
2026-04-29 03:49 24.70231 39.40969 38000 ft 493 kts 299°
2026-04-29 03:50 24.73638 39.34427 38000 ft 493 kts 299°
2026-04-29 03:50 24.77047 39.27875 38001 ft 493 kts 299°
2026-04-29 03:51 24.80453 39.21323 38000 ft 493 kts 299°
2026-04-29 03:51 24.83862 39.14757 38000 ft 493 kts 299°
2026-04-29 03:52 24.87242 39.08239 38000 ft 493 kts 299°
2026-04-29 03:52 24.90641 39.01673 38000 ft 493 kts 299°
2026-04-29 03:53 24.94038 38.95103 38000 ft 493 kts 299°
2026-04-29 03:53 24.97439 38.88515 38001 ft 493 kts 299°
2026-04-29 03:54 25.00806 38.81985 38000 ft 493 kts 299°
2026-04-29 03:54 25.04190 38.75411 38000 ft 493 kts 299°
2026-04-29 03:55 25.07578 38.68820 38000 ft 493 kts 299°
2026-04-29 03:55 25.10959 38.62236 38000 ft 493 kts 299°
2026-04-29 03:56 25.14318 38.55683 38000 ft 493 kts 299°
2026-04-29 03:56 25.17696 38.49086 38000 ft 493 kts 299°
2026-04-29 03:57 25.21068 38.42489 38000 ft 493 kts 299°
2026-04-29 03:57 25.24418 38.35927 38000 ft 493 kts 299°
2026-04-29 03:58 25.27790 38.29313 38000 ft 493 kts 299°
2026-04-29 03:58 25.31154 38.22705 38000 ft 493 kts 299°
2026-04-29 03:59 25.34495 38.16132 38000 ft 493 kts 299°
2026-04-29 03:59 25.37855 38.09511 38000 ft 493 kts 299°
2026-04-29 04:00 25.41207 38.02898 38000 ft 493 kts 299°
2026-04-29 04:00 25.44562 37.96269 38001 ft 493 kts 299°
2026-04-29 04:01 25.47898 37.89669 38000 ft 493 kts 299°
2026-04-29 04:01 25.51245 37.83037 38000 ft 493 kts 299°
2026-04-29 04:02 25.54587 37.76406 38000 ft 493 kts 298°
2026-04-29 04:02 25.57925 37.69773 38000 ft 493 kts 298°
2026-04-29 04:03 25.61243 37.63168 38000 ft 493 kts 298°
2026-04-29 04:03 25.64570 37.56537 38001 ft 493 kts 298°
2026-04-29 04:04 25.67905 37.49881 38000 ft 493 kts 298°
2026-04-29 04:04 25.71227 37.43241 38000 ft 493 kts 298°
2026-04-29 04:05 25.74555 37.36578 38000 ft 493 kts 298°
2026-04-29 04:05 25.77851 37.29972 38000 ft 493 kts 298°
2026-04-29 04:06 25.81176 37.23296 38000 ft 493 kts 298°
2026-04-29 04:06 25.84495 37.16621 38000 ft 493 kts 298°
2026-04-29 04:07 25.87807 37.09953 38000 ft 493 kts 298°
2026-04-29 04:07 25.91095 37.03322 38000 ft 493 kts 298°
2026-04-29 04:08 25.94407 36.96635 38000 ft 493 kts 298°
2026-04-29 04:08 25.97692 36.89989 38000 ft 493 kts 298°
2026-04-29 04:09 26.00993 36.83304 38000 ft 493 kts 298°
2026-04-29 04:09 26.04287 36.76620 38000 ft 493 kts 298°
2026-04-29 04:10 26.07583 36.69924 38000 ft 493 kts 298°
2026-04-29 04:10 26.10873 36.63230 38000 ft 493 kts 298°
2026-04-29 04:11 26.14142 36.56569 38000 ft 493 kts 298°
2026-04-29 04:11 26.17547 36.49930 38001 ft 493 kts 304°
2026-04-29 04:12 26.21982 36.44126 38000 ft 493 kts 313°
2026-04-29 04:12 26.26739 36.38609 38000 ft 493 kts 314°
2026-04-29 04:13 26.31537 36.33131 38000 ft 493 kts 314°
2026-04-29 04:13 26.36324 36.27637 38000 ft 493 kts 314°
2026-04-29 04:14 26.41066 36.22164 38000 ft 493 kts 314°
2026-04-29 04:14 26.45839 36.16640 38000 ft 493 kts 313°
2026-04-29 04:15 26.49792 36.12060 38000 ft 493 kts 313°
2026-04-29 04:15 26.54557 36.06533 38000 ft 493 kts 313°
2026-04-29 04:16 26.59324 36.00997 38000 ft 493 kts 313°
2026-04-29 04:16 26.64080 35.95468 38000 ft 493 kts 313°
2026-04-29 04:17 26.68815 35.89956 38000 ft 493 kts 313°
2026-04-29 04:17 26.73568 35.84416 38000 ft 493 kts 313°
2026-04-29 04:18 26.78316 35.78874 38000 ft 493 kts 313°
2026-04-29 04:18 26.83039 35.73363 38000 ft 493 kts 313°
2026-04-29 04:19 26.87787 35.67805 38000 ft 493 kts 313°
2026-04-29 04:19 26.92523 35.62253 38000 ft 493 kts 313°
2026-04-29 04:20 26.97268 35.56686 38000 ft 493 kts 313°
2026-04-29 04:20 27.01999 35.51129 38000 ft 492 kts 313°
2026-04-29 04:21 27.06708 35.45591 38000 ft 492 kts 313°
2026-04-29 04:21 27.11433 35.40028 38000 ft 492 kts 313°
2026-04-29 04:22 27.16156 35.34458 38000 ft 492 kts 313°
2026-04-29 04:22 27.20879 35.28882 38000 ft 492 kts 313°
2026-04-29 04:23 27.25605 35.23296 38000 ft 492 kts 313°
2026-04-29 04:23 27.30322 35.17712 38000 ft 492 kts 313°
2026-04-29 04:24 27.35040 35.12120 38001 ft 492 kts 313°
2026-04-29 04:24 27.39752 35.06527 38000 ft 492 kts 313°
2026-04-29 04:25 27.44429 35.00968 38000 ft 492 kts 313°
2026-04-29 04:25 27.49130 34.95374 38000 ft 492 kts 313°
2026-04-29 04:26 27.53887 34.89820 38001 ft 492 kts 315°
2026-04-29 04:26 27.58905 34.84569 38000 ft 492 kts 317°
2026-04-29 04:27 27.63972 34.79360 38000 ft 492 kts 317°
2026-04-29 04:27 27.68952 34.74151 38000 ft 492 kts 316°
2026-04-29 04:28 27.73710 34.69116 38000 ft 492 kts 316°
2026-04-29 04:28 27.78700 34.63816 38000 ft 492 kts 316°
2026-04-29 04:29 27.83662 34.58542 38000 ft 492 kts 316°
2026-04-29 04:29 27.88642 34.53243 38000 ft 492 kts 316°
2026-04-29 04:30 27.93626 34.47935 38000 ft 491 kts 316°
2026-04-29 04:31 28.00906 34.39751 38002 ft 491 kts 310°
2026-04-29 04:31 28.05265 34.33858 38001 ft 491 kts 309°
2026-04-29 04:32 28.09591 34.27857 38000 ft 491 kts 309°
2026-04-29 04:32 28.13908 34.21851 38000 ft 491 kts 309°
2026-04-29 04:33 28.18227 34.15849 38000 ft 491 kts 309°
2026-04-29 04:33 28.22533 34.09868 38001 ft 491 kts 309°
2026-04-29 04:34 28.26850 34.03864 37999 ft 491 kts 309°
2026-04-29 04:34 28.31163 33.97858 38000 ft 491 kts 309°
2026-04-29 04:35 28.35471 33.91848 38000 ft 491 kts 309°
2026-04-29 04:35 28.39752 33.85869 38001 ft 490 kts 309°
2026-04-29 04:36 28.44063 33.79837 38000 ft 490 kts 309°
2026-04-29 04:36 28.48368 33.73807 38000 ft 490 kts 309°
2026-04-29 04:37 28.52663 33.67781 38001 ft 490 kts 308°
2026-04-29 04:37 28.56930 33.61786 38001 ft 490 kts 308°
2026-04-29 04:38 28.61212 33.55763 38000 ft 490 kts 308°
2026-04-29 04:38 28.65516 33.49706 38001 ft 490 kts 308°
2026-04-29 04:39 28.69801 33.43660 38000 ft 490 kts 308°
2026-04-29 04:39 28.74057 33.37642 38000 ft 490 kts 308°
2026-04-29 04:40 28.78330 33.31594 38000 ft 490 kts 308°
2026-04-29 04:40 28.82606 33.25534 38000 ft 490 kts 308°
2026-04-29 04:41 28.86878 33.19473 38000 ft 490 kts 308°
2026-04-29 04:41 28.91148 33.13406 37960 ft 489 kts 308°
2026-04-29 04:41 28.93246 33.10421 37484 ft 486 kts 308°
2026-04-29 04:42 28.95386 33.07374 36870 ft 485 kts 308°
2026-04-29 04:42 28.97470 33.04405 36185 ft 486 kts 308°
2026-04-29 04:42 28.99590 33.01382 35487 ft 487 kts 308°
2026-04-29 04:42 29.01704 32.98366 34901 ft 485 kts 308°
2026-04-29 04:43 29.03808 32.95362 34394 ft 481 kts 308°
2026-04-29 04:43 29.05895 32.92381 33878 ft 478 kts 308°
2026-04-29 04:43 29.07962 32.89425 33364 ft 475 kts 308°
2026-04-29 04:43 29.10014 32.86490 32852 ft 471 kts 308°
2026-04-29 04:44 29.12054 32.83568 32331 ft 468 kts 308°
2026-04-29 04:44 29.14077 32.80669 31833 ft 465 kts 308°
2026-04-29 04:44 29.16090 32.77782 31336 ft 462 kts 308°
2026-04-29 04:44 29.18090 32.74912 30839 ft 459 kts 308°
2026-04-29 04:45 29.20066 32.72075 30344 ft 456 kts 308°
2026-04-29 04:45 29.22037 32.69243 29852 ft 452 kts 308°
2026-04-29 04:45 29.23993 32.66431 29368 ft 449 kts 308°
2026-04-29 04:45 29.25910 32.63672 28882 ft 446 kts 308°
2026-04-29 04:46 29.27832 32.60905 28397 ft 443 kts 308°
2026-04-29 04:46 29.29749 32.58146 27926 ft 440 kts 308°
2026-04-29 04:46 29.31638 32.55408 27424 ft 437 kts 308°
2026-04-29 04:46 29.33512 32.52674 26941 ft 433 kts 308°
2026-04-29 04:47 29.35367 32.49963 26463 ft 430 kts 308°
2026-04-29 04:47 29.37204 32.47277 25984 ft 427 kts 308°
2026-04-29 04:47 29.39038 32.44595 25507 ft 424 kts 308°
2026-04-29 04:47 29.40853 32.41943 25022 ft 421 kts 308°
2026-04-29 04:48 29.42650 32.39317 24539 ft 418 kts 308°
2026-04-29 04:48 29.44440 32.36700 24054 ft 414 kts 308°
2026-04-29 04:48 29.46211 32.34111 23570 ft 411 kts 308°
2026-04-29 04:48 29.47967 32.31541 23097 ft 408 kts 308°
2026-04-29 04:49 29.49714 32.28983 22615 ft 404 kts 308°
2026-04-29 04:49 29.51441 32.26452 22141 ft 401 kts 308°
2026-04-29 04:49 29.53134 32.23970 21670 ft 398 kts 308°
2026-04-29 04:49 29.54852 32.21450 21189 ft 394 kts 308°
2026-04-29 04:50 29.56535 32.18979 20720 ft 391 kts 307°
2026-04-29 04:50 29.58201 32.16532 20257 ft 387 kts 307°
2026-04-29 04:50 29.59838 32.14126 19792 ft 384 kts 307°
2026-04-29 04:50 29.61477 32.11717 19318 ft 381 kts 307°
2026-04-29 04:51 29.63098 32.09332 18871 ft 377 kts 307°
2026-04-29 04:51 29.64708 32.06962 18414 ft 374 kts 307°
2026-04-29 04:51 29.66307 32.04605 17957 ft 371 kts 307°
2026-04-29 04:51 29.67890 32.02273 17503 ft 368 kts 307°
2026-04-29 04:52 29.69454 31.99965 17059 ft 364 kts 307°
2026-04-29 04:52 29.71006 31.97676 16601 ft 361 kts 307°
2026-04-29 04:52 29.72547 31.95401 16160 ft 358 kts 307°
2026-04-29 04:52 29.74064 31.93159 15734 ft 354 kts 307°
2026-04-29 04:53 29.75572 31.90931 15299 ft 351 kts 307°
2026-04-29 04:53 29.76963 31.88637 14847 ft 347 kts 298°
2026-04-29 04:53 29.77840 31.86073 14435 ft 343 kts 282°
2026-04-29 04:53 29.78086 31.83393 14016 ft 339 kts 271°
2026-04-29 04:54 29.78041 31.80696 13589 ft 335 kts 266°
2026-04-29 04:54 29.77856 31.78024 13171 ft 332 kts 264°
2026-04-29 04:54 29.77613 31.75399 12759 ft 328 kts 263°
2026-04-29 04:54 29.77358 31.72784 12347 ft 325 kts 263°
2026-04-29 04:55 29.77121 31.70250 11946 ft 321 kts 264°
2026-04-29 04:55 29.76898 31.67702 11544 ft 318 kts 264°
2026-04-29 04:55 29.76691 31.65182 11186 ft 313 kts 264°
2026-04-29 04:55 29.76498 31.62725 11037 ft 302 kts 264°
2026-04-29 04:56 29.76317 31.60360 10903 ft 291 kts 264°
2026-04-29 04:56 29.76144 31.58087 10759 ft 280 kts 264°
2026-04-29 04:56 29.75976 31.55873 10473 ft 276 kts 264°
2026-04-29 04:56 29.75807 31.53681 10169 ft 273 kts 264°
2026-04-29 04:57 29.75640 31.51511 9858 ft 273 kts 264°
2026-04-29 04:57 29.75466 31.49278 9652 ft 285 kts 264°
2026-04-29 04:57 29.75288 31.46990 9455 ft 287 kts 264°
2026-04-29 04:57 29.75109 31.44698 9007 ft 287 kts 264°
2026-04-29 04:58 29.74930 31.42404 8583 ft 287 kts 264°
2026-04-29 04:58 29.74751 31.40130 8248 ft 283 kts 264°
2026-04-29 04:58 29.74575 31.37886 7932 ft 281 kts 264°
2026-04-29 04:58 29.74401 31.35670 7621 ft 280 kts 264°
2026-04-29 04:59 29.74276 31.33439 7307 ft 279 kts 271°
2026-04-29 04:59 29.74621 31.31254 7000 ft 279 kts 290°
2026-04-29 04:59 29.75647 31.29382 6686 ft 278 kts 315°
2026-04-29 04:59 29.76677 31.28501 6458 ft 277 kts 332°
2026-04-29 05:00 29.78445 31.27636 6152 ft 277 kts 341°
2026-04-29 05:00 29.80301 31.27029 5837 ft 276 kts 346°
2026-04-29 05:00 29.82174 31.26548 5537 ft 275 kts 348°
2026-04-29 05:00 29.84047 31.26104 5218 ft 274 kts 348°
2026-04-29 05:01 29.85901 31.25654 4898 ft 273 kts 347°
2026-04-29 05:01 29.87758 31.25176 4595 ft 272 kts 346°
2026-04-29 05:01 29.89597 31.24677 4293 ft 270 kts 346°
2026-04-29 05:01 29.91414 31.24165 3980 ft 269 kts 345°
2026-04-29 05:02 29.93223 31.23645 3786 ft 262 kts 345°
2026-04-29 05:02 29.94953 31.23175 3665 ft 250 kts 350°
2026-04-29 05:02 29.96634 31.23308 3570 ft 238 kts 17°
2026-04-29 05:02 29.98089 31.24104 3458 ft 227 kts 35°
2026-04-29 05:03 29.99193 31.25342 3369 ft 216 kts 51°
2026-04-29 05:03 30.00092 31.26663 3295 ft 203 kts 51°
2026-04-29 05:03 30.00995 31.27877 3094 ft 197 kts 48°
2026-04-29 05:03 30.01886 31.29040 2823 ft 195 kts 49°
2026-04-29 05:04 30.02766 31.30220 2548 ft 192 kts 49°
2026-04-29 05:04 30.03627 31.31370 2293 ft 185 kts 49°
2026-04-29 05:04 30.04450 31.32465 2047 ft 176 kts 49°
2026-04-29 05:04 30.05229 31.33504 1812 ft 165 kts 49°
2026-04-29 05:05 30.05958 31.34478 1597 ft 154 kts 49°
2026-04-29 05:05 30.06637 31.35384 1411 ft 146 kts 49°
2026-04-29 05:05 30.07297 31.36264 1215 ft 144 kts 49°
2026-04-29 05:05 30.07957 31.37145 1023 ft 145 kts 49°
2026-04-29 05:06 30.08615 31.38023 826 ft 145 kts 49°
2026-04-29 05:06 30.09266 31.38892 642 ft 144 kts 49°
2026-04-29 05:06 30.09921 31.39766 455 ft 144 kts 49°
2026-04-29 05:06 30.10555 31.40612 390 ft 131 kts 49°
2026-04-29 05:07 30.11078 31.41303 393 ft 98 kts 49°
2026-04-29 05:07 30.11453 31.41798 389 ft 50 kts 49°
2026-04-29 05:07 30.11654 31.42065 390 ft 43 kts 49°
2026-04-29 05:07 30.11781 31.42175 389 ft 0 kts 15°
2026-04-29 05:08 30.11802 31.42182 389 ft 7 kts 15°
2026-04-29 05:08 30.11874 31.42206 386 ft 15 kts 18°
2026-04-29 05:08 30.11998 31.42209 377 ft 21 kts 316°
2026-04-29 05:08 30.11965 31.42088 374 ft 16 kts 231°
2026-04-29 05:09 30.11883 31.41978 374 ft 20 kts 229°
2026-04-29 05:09 30.11801 31.41867 374 ft 14 kts 230°
2026-04-29 05:09 30.11729 31.41771 374 ft 17 kts 229°
2026-04-29 05:09 30.11669 31.41690 374 ft 13 kts 230°
2026-04-29 05:10 30.11603 31.41599 377 ft 16 kts 230°
2026-04-29 05:10 30.11521 31.41492 375 ft 19 kts 227°
2026-04-29 05:10 30.11446 31.41395 375 ft 8 kts 229°
2026-04-29 05:10 30.11404 31.41331 375 ft 11 kts 242°
2026-04-29 05:11 30.11419 31.41233 371 ft 15 kts 268°
2026-04-29 05:11 30.11363 31.41122 371 ft 18 kts 229°
2026-04-29 05:11 30.11273 31.41005 372 ft 21 kts 227°
2026-04-29 05:11 30.11175 31.40874 372 ft 22 kts 230°
2026-04-29 05:12 30.11111 31.40787 376 ft 14 kts 229°
2026-04-29 05:12 30.11039 31.40692 374 ft 17 kts 228°
2026-04-29 05:12 30.10954 31.40579 377 ft 20 kts 229°
2026-04-29 05:12 30.10860 31.40453 374 ft 20 kts 230°
2026-04-29 05:13 30.10792 31.40363 377 ft 13 kts 228°
2026-04-29 05:13 30.10725 31.40276 372 ft 15 kts 228°
2026-04-29 05:13 30.10652 31.40179 375 ft 17 kts 229°
2026-04-29 05:13 30.10589 31.40094 375 ft 15 kts 229°
2026-04-29 05:14 30.10514 31.39995 373 ft 16 kts 229°
2026-04-29 05:14 30.10491 31.39902 371 ft 14 kts 285°
2026-04-29 05:14 30.10587 31.39840 367 ft 18 kts 345°
2026-04-29 05:14 30.10674 31.39816 364 ft 14 kts 345°
2026-04-29 05:15 30.10725 31.39800 362 ft 2 kts 345°
2026-04-29 05:15 30.10772 31.39785 359 ft 11 kts 345°
2026-04-29 05:15 30.10804 31.39775 357 ft 3 kts 345°
2026-04-29 05:15 30.10823 31.39746 354 ft 6 kts 274°
2026-04-29 05:16 30.10816 31.39709 352 ft 1 kts 256°
2026-04-29 05:16 30.10811 31.39689 348 ft 0 kts 256°
2026-04-29 05:16 30.10811 31.39685 351 ft 0 kts 256°